Time,TemperatureF,DewpointF,PressureIn,WindDirection,WindDirectionDegrees,WindSpeedMPH,WindSpeedGustMPH,Humidity,HourlyPrecipIn,Conditions,Clouds,dailyrainin,SolarRadiationWatts/m^2,SoftwareType,DateUTC
2013-01-04 00:00:00,37.9,35.5,30.15,SE,125,2.0,-999.0,91,0.00,,,0.05,0,Wunderground v.1.15,2013-01-04 08:00:00,
2013-01-04 00:03:00,38.1,35.7,30.15,SE,146,3.0,-999.0,91,0.00,,,0.00,0,Wunderground v.1.15,2013-01-04 08:03:00,
2013-01-04 00:06:00,38.2,35.8,30.15,SE,133,6.0,-999.0,91,0.00,,,0.00,0,Wunderground v.1.15,2013-01-04 08:06:00,
2013-01-04 00:08:00,38.2,35.8,30.15,SE,136,2.0,-999.0,91,0.00,,,0.00,0,Wunderground v.1.15,2013-01-04 08:08:00,
2013-01-04 00:10:00,38.4,36.0,30.15,SE,141,0.0,-999.0,91,0.00,,,0.00,0,Wunderground v.1.15,2013-01-04 08:10:00,
2013-01-04 00:11:00,38.4,36.0,30.15,SE,126,3.0,-999.0,91,0.00,,,0.00,0,Wunderground v.1.15,2013-01-04 08:11:00,
2013-01-04 00:13:00,38.4,36.0,30.15,SE,128,4.0,-999.0,91,0.00,,,0.00,0,Wunderground v.1.15,2013-01-04 08:13:00,
2013-01-04 00:15:00,38.4,36.0,30.15,ESE,112,2.0,-999.0,91,0.00,,,0.00,0,Wunderground v.1.15,2013-01-04 08:15:00,
2013-01-04 00:16:00,38.5,36.1,30.16,SSE,152,5.0,-999.0,91,0.00,,,0.00,0,Wunderground v.1.15,2013-01-04 08:16:00,
2013-01-04 00:17:00,38.5,36.1,30.16,SE,142,1.0,-999.0,91,0.00,,,0.00,0,Wunderground v.1.15,2013-01-04 08:17:00,
2013-01-04 00:22:00,38.5,36.1,30.16,SSE,159,1.0,-999.0,91,0.00,,,0.00,0,Wunderground v.1.15,2013-01-04 08:22:00,
2013-01-04 00:23:00,38.5,36.1,30.16,SSE,159,1.0,-999.0,91,0.00,,,0.00,0,Wunderground v.1.15,2013-01-04 08:23:00,
2013-01-04 00:26:00,38.6,36.2,30.16,SE,141,3.0,-999.0,91,0.00,,,0.00,0,Wunderground v.1.15,2013-01-04 08:26:00,
2013-01-04 00:28:00,38.6,36.2,30.16,SE,146,1.0,-999.0,91,0.00,,,0.00,0,Wunderground v.1.15,2013-01-04 08:28:00,
2013-01-04 00:30:00,38.6,36.2,30.16,SE,129,0.0,-999.0,91,0.00,,,0.00,0,Wunderground v.1.15,2013-01-04 08:30:00,
2013-01-04 00:31:00,38.6,36.2,30.16,ESE,114,2.0,-999.0,91,0.00,,,0.00,0,Wunderground v.1.15,2013-01-04 08:31:00,
2013-01-04 00:34:00,38.6,36.2,30.16,ESE,112,1.0,-999.0,91,0.00,,,0.00,0,Wunderground v.1.15,2013-01-04 08:34:00,
2013-01-04 00:37:00,38.6,36.2,30.16,South,173,3.0,-999.0,91,0.00,,,0.00,0,Wunderground v.1.15,2013-01-04 08:37:00,
2013-01-04 00:39:00,38.6,36.2,30.16,SE,142,1.0,-999.0,91,0.00,,,0.00,0,Wunderground v.1.15,2013-01-04 08:39:00,
2013-01-04 00:40:00,38.6,36.2,30.16,SE,142,0.0,-999.0,91,0.00,,,0.00,0,Wunderground v.1.15,2013-01-04 08:40:00,
2013-01-04 00:41:00,38.6,36.2,30.16,SE,143,2.0,-999.0,91,0.00,,,0.00,0,Wunderground v.1.15,2013-01-04 08:41:00,
2013-01-04 00:44:00,38.6,36.2,30.16,ESE,102,0.0,-999.0,91,0.00,,,0.00,0,Wunderground v.1.15,2013-01-04 08:44:00,
2013-01-04 00:46:00,38.6,36.2,30.16,ESE,102,0.0,-999.0,91,0.00,,,0.00,0,Wunderground v.1.15,2013-01-04 08:46:00,
2013-01-04 00:48:00,38.6,36.2,30.16,SE,143,0.0,-999.0,91,0.00,,,0.00,0,Wunderground v.1.15,2013-01-04 08:48:00,
2013-01-04 00:50:00,38.6,36.2,30.16,SE,141,2.0,-999.0,91,0.00,,,0.00,0,Wunderground v.1.15,2013-01-04 08:50:00,
2013-01-04 00:52:00,38.5,36.1,30.16,SE,124,1.0,-999.0,91,0.00,,,0.00,0,Wunderground v.1.15,2013-01-04 08:52:00,
2013-01-04 00:53:00,38.5,36.1,30.16,SE,124,1.0,-999.0,91,0.00,,,0.00,0,Wunderground v.1.15,2013-01-04 08:53:00,
2013-01-04 00:55:00,38.5,36.1,30.16,SE,141,0.0,-999.0,91,0.00,,,0.00,0,Wunderground v.1.15,2013-01-04 08:55:00,
2013-01-04 00:58:00,38.5,36.1,30.16,SSE,148,1.0,-999.0,91,0.00,,,0.00,0,Wunderground v.1.15,2013-01-04 08:58:00,
2013-01-04 00:59:00,38.5,36.1,30.16,SSE,148,0.0,-999.0,91,0.00,,,0.00,0,Wunderground v.1.15,2013-01-04 08:59:00,
2013-01-04 01:03:00,38.5,36.1,30.17,East,81,1.0,-999.0,91,0.00,,,0.00,0,Wunderground v.1.15,2013-01-04 09:03:00,
2013-01-04 01:04:00,38.4,36.0,30.17,SE,135,0.0,-999.0,91,0.00,,,0.00,0,Wunderground v.1.15,2013-01-04 09:04:00,
2013-01-04 01:05:00,38.4,36.0,30.17,SE,135,0.0,-999.0,91,0.00,,,0.00,0,Wunderground v.1.15,2013-01-04 09:05:00,
2013-01-04 01:10:00,38.4,36.0,30.17,SE,135,0.0,-999.0,91,0.00,,,0.00,0,Wunderground v.1.15,2013-01-04 09:10:00,
2013-01-04 01:12:00,38.2,35.8,30.17,SE,135,0.0,-999.0,91,0.00,,,0.00,0,Wunderground v.1.15,2013-01-04 09:12:00,
2013-01-04 01:14:00,38.2,35.8,30.17,SE,135,0.0,-999.0,91,0.00,,,0.00,0,Wunderground v.1.15,2013-01-04 09:14:00,
2013-01-04 01:15:00,38.2,35.8,30.17,ESE,109,2.0,-999.0,91,0.00,,,0.00,0,Wunderground v.1.15,2013-01-04 09:15:00,
2013-01-04 01:19:00,38.1,35.7,30.17,East,95,0.0,-999.0,91,0.00,,,0.00,0,Wunderground v.1.15,2013-01-04 09:19:00,
2013-01-04 01:21:00,38.1,35.7,30.17,East,95,1.0,-999.0,91,0.00,,,0.00,0,Wunderground v.1.15,2013-01-04 09:21:00,
2013-01-04 01:25:00,37.9,35.5,30.17,SSE,160,0.0,-999.0,91,0.00,,,0.00,0,Wunderground v.1.15,2013-01-04 09:25:00,
2013-01-04 01:27:00,37.8,35.4,30.17,SSE,160,0.0,-999.0,91,0.00,,,0.00,0,Wunderground v.1.15,2013-01-04 09:27:00,
2013-01-04 01:28:00,37.8,35.4,30.17,SSE,159,0.0,-999.0,91,0.00,,,0.00,0,Wunderground v.1.15,2013-01-04 09:28:00,
2013-01-04 01:29:00,37.8,35.4,30.17,SSE,160,1.0,-999.0,91,0.00,,,0.00,0,Wunderground v.1.15,2013-01-04 09:29:00,
2013-01-04 01:32:00,37.6,35.2,30.18,ESE,114,1.0,-999.0,91,0.00,,,0.00,0,Wunderground v.1.15,2013-01-04 09:32:00,
2013-01-04 01:34:00,37.5,35.1,30.18,SE,135,0.0,-999.0,91,0.00,,,0.00,0,Wunderground v.1.15,2013-01-04 09:34:00,
2013-01-04 01:35:00,37.5,35.1,30.18,SE,135,0.0,-999.0,91,0.00,,,0.00,0,Wunderground v.1.15,2013-01-04 09:35:00,
2013-01-04 01:38:00,37.5,35.1,30.18,SE,141,0.0,-999.0,91,0.00,,,0.00,0,Wunderground v.1.15,2013-01-04 09:38:00,
2013-01-04 01:42:00,37.5,35.1,30.18,SE,141,0.0,-999.0,91,0.00,,,0.00,0,Wunderground v.1.15,2013-01-04 09:42:00,
2013-01-04 01:43:00,37.5,35.1,30.18,SE,141,0.0,-999.0,91,0.00,,,0.00,0,Wunderground v.1.15,2013-01-04 09:43:00,
2013-01-04 01:47:00,37.6,35.2,30.18,SE,141,3.0,-999.0,91,0.00,,,0.00,0,Wunderground v.1.15,2013-01-04 09:47:00,
2013-01-04 01:49:00,37.6,35.2,30.18,SE,142,2.0,-999.0,91,0.00,,,0.00,0,Wunderground v.1.15,2013-01-04 09:49:00,
2013-01-04 01:51:00,37.6,35.2,30.18,SSE,155,1.0,-999.0,91,0.00,,,0.00,0,Wunderground v.1.15,2013-01-04 09:51:00,
2013-01-04 01:54:00,37.8,35.4,30.18,East,93,1.0,-999.0,91,0.00,,,0.00,0,Wunderground v.1.15,2013-01-04 09:54:00,
2013-01-04 01:56:00,37.9,35.5,30.18,SE,142,0.0,-999.0,91,0.00,,,0.00,0,Wunderground v.1.15,2013-01-04 09:56:00,
2013-01-04 01:59:00,37.9,35.5,30.18,SE,124,1.0,-999.0,91,0.00,,,0.00,0,Wunderground v.1.15,2013-01-04 09:59:00,
2013-01-04 02:00:00,37.9,35.5,30.18,SE,125,2.0,-999.0,91,0.00,,,0.00,0,Wunderground v.1.15,2013-01-04 10:00:00,
2013-01-04 02:01:00,38.1,35.7,30.19,SE,125,0.0,-999.0,91,0.00,,,0.00,0,Wunderground v.1.15,2013-01-04 10:01:00,
2013-01-04 02:04:00,38.2,35.8,30.19,West,279,2.0,-999.0,91,0.00,,,0.00,0,Wunderground v.1.15,2013-01-04 10:04:00,
2013-01-04 02:05:00,38.2,35.8,30.19,WNW,282,2.0,-999.0,91,0.00,,,0.00,0,Wunderground v.1.15,2013-01-04 10:05:00,
2013-01-04 02:06:00,38.2,35.8,30.19,SE,124,2.0,-999.0,91,0.00,,,0.00,0,Wunderground v.1.15,2013-01-04 10:06:00,
2013-01-04 02:09:00,38.4,36.0,30.19,SE,139,0.0,-999.0,91,0.00,,,0.00,0,Wunderground v.1.15,2013-01-04 10:09:00,
2013-01-04 02:10:00,38.4,36.0,30.19,SE,139,0.0,-999.0,91,0.00,,,0.00,0,Wunderground v.1.15,2013-01-04 10:10:00,
2013-01-04 02:11:00,38.4,36.0,30.19,SE,139,0.0,-999.0,91,0.00,,,0.00,0,Wunderground v.1.15,2013-01-04 10:11:00,
2013-01-04 02:14:00,38.4,36.0,30.19,ESE,119,2.0,-999.0,91,0.00,,,0.00,0,Wunderground v.1.15,2013-01-04 10:14:00,
2013-01-04 02:15:00,38.4,36.0,30.20,SE,124,1.0,-999.0,91,0.00,,,0.00,0,Wunderground v.1.15,2013-01-04 10:15:00,
2013-01-04 02:16:00,38.4,36.0,30.20,SSE,156,1.0,-999.0,91,0.00,,,0.00,0,Wunderground v.1.15,2013-01-04 10:16:00,
2013-01-04 02:19:00,38.5,36.1,30.20,East,93,1.0,-999.0,91,0.00,,,0.00,0,Wunderground v.1.15,2013-01-04 10:19:00,
2013-01-04 02:20:00,38.5,36.1,30.20,East,93,2.0,-999.0,91,0.00,,,0.00,0,Wunderground v.1.15,2013-01-04 10:20:00,
2013-01-04 02:21:00,38.5,36.1,30.20,SSE,149,1.0,-999.0,91,0.00,,,0.00,0,Wunderground v.1.15,2013-01-04 10:21:00,
2013-01-04 02:25:00,38.6,36.2,30.20,SE,131,1.0,-999.0,91,0.00,,,0.00,0,Wunderground v.1.15,2013-01-04 10:25:00,
2013-01-04 02:26:00,38.6,36.2,30.20,ESE,121,1.0,-999.0,91,0.00,,,0.00,0,Wunderground v.1.15,2013-01-04 10:26:00,
2013-01-04 02:27:00,38.6,36.2,30.20,ESE,121,1.0,-999.0,91,0.00,,,0.00,0,Wunderground v.1.15,2013-01-04 10:27:00,
2013-01-04 02:30:00,38.8,36.4,30.20,ESE,114,0.0,-999.0,91,0.00,,,0.00,0,Wunderground v.1.15,2013-01-04 10:30:00,
2013-01-04 02:31:00,38.8,36.4,30.20,ESE,112,0.0,-999.0,91,0.00,,,0.00,0,Wunderground v.1.15,2013-01-04 10:31:00,
2013-01-04 02:32:00,38.8,36.4,30.20,ESE,114,2.0,-999.0,91,0.00,,,0.00,0,Wunderground v.1.15,2013-01-04 10:32:00,
2013-01-04 02:35:00,38.9,36.5,30.20,ESE,112,1.0,-999.0,91,0.00,,,0.00,0,Wunderground v.1.15,2013-01-04 10:35:00,
2013-01-04 02:36:00,38.9,36.5,30.20,ESE,112,0.0,-999.0,91,0.00,,,0.00,0,Wunderground v.1.15,2013-01-04 10:36:00,
2013-01-04 02:37:00,38.9,36.5,30.20,ESE,112,0.0,-999.0,91,0.00,,,0.00,0,Wunderground v.1.15,2013-01-04 10:37:00,
2013-01-04 02:40:00,39.1,36.7,30.20,ESE,108,0.0,-999.0,91,0.00,,,0.00,0,Wunderground v.1.15,2013-01-04 10:40:00,
2013-01-04 02:41:00,39.1,36.7,30.20,ESE,108,0.0,-999.0,91,0.00,,,0.00,0,Wunderground v.1.15,2013-01-04 10:41:00,
2013-01-04 02:43:00,39.1,36.7,30.20,ESE,108,1.0,-999.0,91,0.00,,,0.00,0,Wunderground v.1.15,2013-01-04 10:43:00,
2013-01-04 02:46:00,39.2,36.8,30.21,East,97,0.0,-999.0,91,0.00,,,0.00,0,Wunderground v.1.15,2013-01-04 10:46:00,
2013-01-04 02:47:00,39.2,36.8,30.21,East,97,0.0,-999.0,91,0.00,,,0.00,0,Wunderground v.1.15,2013-01-04 10:47:00,
2013-01-04 02:49:00,39.2,36.8,30.21,East,97,0.0,-999.0,91,0.00,,,0.00,0,Wunderground v.1.15,2013-01-04 10:49:00,
2013-01-04 02:51:00,39.2,36.8,30.21,SE,126,0.0,-999.0,91,0.00,,,0.00,0,Wunderground v.1.15,2013-01-04 10:51:00,
2013-01-04 02:52:00,39.2,36.8,30.21,SE,132,3.0,-999.0,91,0.00,,,0.00,0,Wunderground v.1.15,2013-01-04 10:52:00,
2013-01-04 02:54:00,39.4,37.0,30.21,ESE,118,3.0,-999.0,91,0.00,,,0.00,0,Wunderground v.1.15,2013-01-04 10:54:00,
2013-01-04 02:56:00,39.4,37.0,30.21,SSE,155,0.0,-999.0,91,0.00,,,0.00,0,Wunderground v.1.15,2013-01-04 10:56:00,
2013-01-04 02:57:00,39.5,37.1,30.21,SSE,155,1.0,-999.0,91,0.00,,,0.00,0,Wunderground v.1.15,2013-01-04 10:57:00,
2013-01-04 02:59:00,39.7,37.3,30.21,ENE,70,1.0,-999.0,91,0.00,,,0.00,0,Wunderground v.1.15,2013-01-04 10:59:00,
2013-01-04 03:02:00,39.7,37.3,30.21,ENE,70,0.0,-999.0,91,0.00,,,0.00,0,Wunderground v.1.15,2013-01-04 11:02:00,
2013-01-04 03:04:00,39.7,37.3,30.21,SE,146,0.0,-999.0,91,0.00,,,0.00,0,Wunderground v.1.15,2013-01-04 11:04:00,
2013-01-04 03:07:00,39.8,37.4,30.21,SE,129,0.0,-999.0,91,0.00,,,0.00,0,Wunderground v.1.15,2013-01-04 11:07:00,
2013-01-04 03:10:00,39.8,37.4,30.21,SE,135,0.0,-999.0,91,0.00,,,0.00,0,Wunderground v.1.15,2013-01-04 11:10:00,
2013-01-04 03:12:00,39.8,37.4,30.21,SE,136,0.0,-999.0,91,0.00,,,0.00,0,Wunderground v.1.15,2013-01-04 11:12:00,
2013-01-04 03:15:00,39.8,37.4,30.22,SE,136,0.0,-999.0,91,0.00,,,0.00,0,Wunderground v.1.15,2013-01-04 11:15:00,
2013-01-04 03:17:00,39.8,37.4,30.22,SE,136,1.0,-999.0,91,0.00,,,0.00,0,Wunderground v.1.15,2013-01-04 11:17:00,
2013-01-04 03:18:00,39.8,37.4,30.22,SE,136,0.0,-999.0,91,0.00,,,0.00,0,Wunderground v.1.15,2013-01-04 11:18:00,
2013-01-04 03:20:00,39.8,37.4,30.22,SE,141,1.0,-999.0,91,0.00,,,0.00,0,Wunderground v.1.15,2013-01-04 11:20:00,
2013-01-04 03:22:00,39.8,37.4,30.22,SE,141,0.0,-999.0,91,0.00,,,0.00,0,Wunderground v.1.15,2013-01-04 11:22:00,
2013-01-04 03:23:00,39.8,37.4,30.22,SE,141,0.0,-999.0,91,0.00,,,0.00,0,Wunderground v.1.15,2013-01-04 11:23:00,
2013-01-04 03:26:00,39.8,37.4,30.22,SE,141,0.0,-999.0,91,0.00,,,0.00,0,Wunderground v.1.15,2013-01-04 11:26:00,
2013-01-04 03:27:00,39.8,37.4,30.22,SE,141,0.0,-999.0,91,0.00,,,0.00,0,Wunderground v.1.15,2013-01-04 11:27:00,
2013-01-04 03:28:00,39.8,37.4,30.22,SSE,149,0.0,-999.0,91,0.00,,,0.00,0,Wunderground v.1.15,2013-01-04 11:28:00,
2013-01-04 03:31:00,39.8,37.4,30.22,SSE,149,0.0,-999.0,91,0.00,,,0.00,0,Wunderground v.1.15,2013-01-04 11:31:00,
2013-01-04 03:32:00,39.9,37.5,30.22,SSE,149,0.0,-999.0,91,0.00,,,0.00,0,Wunderground v.1.15,2013-01-04 11:32:00,
2013-01-04 03:33:00,39.9,37.5,30.22,SSE,148,0.0,-999.0,91,0.00,,,0.00,0,Wunderground v.1.15,2013-01-04 11:33:00,
2013-01-04 03:37:00,39.9,37.5,30.22,SE,136,0.0,-999.0,91,0.00,,,0.00,0,Wunderground v.1.15,2013-01-04 11:37:00,
2013-01-04 03:39:00,39.9,37.5,30.22,SE,136,1.0,-999.0,91,0.00,,,0.00,0,Wunderground v.1.15,2013-01-04 11:39:00,
2013-01-04 03:42:00,39.9,37.5,30.22,SE,136,0.0,-999.0,91,0.00,,,0.00,0,Wunderground v.1.15,2013-01-04 11:42:00,
2013-01-04 03:44:00,39.8,37.4,30.22,SE,136,0.0,-999.0,91,0.00,,,0.00,0,Wunderground v.1.15,2013-01-04 11:44:00,
2013-01-04 03:45:00,39.8,37.4,30.22,SE,136,0.0,-999.0,91,0.00,,,0.00,0,Wunderground v.1.15,2013-01-04 11:45:00,
2013-01-04 03:47:00,39.8,37.4,30.22,SSE,162,0.0,-999.0,91,0.00,,,0.00,0,Wunderground v.1.15,2013-01-04 11:47:00,
2013-01-04 03:48:00,39.8,37.4,30.22,SSE,162,0.0,-999.0,91,0.00,,,0.00,0,Wunderground v.1.15,2013-01-04 11:48:00,
2013-01-04 03:49:00,39.8,37.4,30.22,SSE,162,0.0,-999.0,91,0.00,,,0.00,0,Wunderground v.1.15,2013-01-04 11:49:00,
2013-01-04 03:50:00,39.8,37.4,30.22,SSE,162,0.0,-999.0,91,0.00,,,0.00,0,Wunderground v.1.15,2013-01-04 11:50:00,
2013-01-04 03:53:00,39.8,37.4,30.22,SSE,162,0.0,-999.0,91,0.00,,,0.00,0,Wunderground v.1.15,2013-01-04 11:53:00,
2013-01-04 03:54:00,39.8,37.4,30.22,SSE,162,0.0,-999.0,91,0.00,,,0.00,0,Wunderground v.1.15,2013-01-04 11:54:00,
2013-01-04 03:55:00,39.7,37.3,30.22,SSE,162,0.0,-999.0,91,0.00,,,0.00,0,Wunderground v.1.15,2013-01-04 11:55:00,
2013-01-04 03:58:00,39.7,37.3,30.22,SSE,162,0.0,-999.0,91,0.00,,,0.00,0,Wunderground v.1.15,2013-01-04 11:58:00,
2013-01-04 03:59:00,39.7,37.3,30.22,SSE,162,0.0,-999.0,91,0.00,,,0.00,0,Wunderground v.1.15,2013-01-04 11:59:00,
2013-01-04 04:01:00,39.7,37.3,30.23,SSE,162,0.0,-999.0,91,0.00,,,0.00,0,Wunderground v.1.15,2013-01-04 12:01:00,
2013-01-04 04:03:00,39.7,37.3,30.23,SE,146,0.0,-999.0,91,0.00,,,0.00,0,Wunderground v.1.15,2013-01-04 12:03:00,
2013-01-04 04:04:00,39.7,37.3,30.23,ESE,121,0.0,-999.0,91,0.00,,,0.00,0,Wunderground v.1.15,2013-01-04 12:04:00,
2013-01-04 04:05:00,39.7,37.3,30.23,ESE,121,0.0,-999.0,91,0.00,,,0.00,0,Wunderground v.1.15,2013-01-04 12:05:00,
2013-01-04 04:06:00,39.7,37.3,30.23,ESE,121,0.0,-999.0,91,0.00,,,0.00,0,Wunderground v.1.15,2013-01-04 12:06:00,
2013-01-04 04:08:00,39.7,37.3,30.23,ESE,121,0.0,-999.0,91,0.00,,,0.00,0,Wunderground v.1.15,2013-01-04 12:08:00,
2013-01-04 04:09:00,39.7,37.3,30.23,SSE,159,1.0,-999.0,91,0.00,,,0.00,0,Wunderground v.1.15,2013-01-04 12:09:00,
2013-01-04 04:10:00,39.7,37.3,30.23,SSE,162,0.0,-999.0,91,0.00,,,0.00,0,Wunderground v.1.15,2013-01-04 12:10:00,
2013-01-04 04:12:00,39.7,37.3,30.23,SSE,157,0.0,-999.0,91,0.00,,,0.00,0,Wunderground v.1.15,2013-01-04 12:12:00,
2013-01-04 04:13:00,39.7,37.3,30.23,SSE,157,0.0,-999.0,91,0.00,,,0.00,0,Wunderground v.1.15,2013-01-04 12:13:00,
2013-01-04 04:14:00,39.7,37.3,30.23,SSE,157,0.0,-999.0,91,0.00,,,0.00,0,Wunderground v.1.15,2013-01-04 12:14:00,
2013-01-04 04:15:00,39.7,37.3,30.23,SSE,157,0.0,-999.0,91,0.00,,,0.00,0,Wunderground v.1.15,2013-01-04 12:15:00,
2013-01-04 04:17:00,39.7,37.3,30.23,SSE,157,0.0,-999.0,91,0.00,,,0.00,0,Wunderground v.1.15,2013-01-04 12:17:00,
2013-01-04 04:19:00,39.7,37.3,30.23,SSE,157,0.0,-999.0,91,0.00,,,0.00,0,Wunderground v.1.15,2013-01-04 12:19:00,
2013-01-04 04:20:00,39.7,37.3,30.23,SSE,157,0.0,-999.0,91,0.00,,,0.00,0,Wunderground v.1.15,2013-01-04 12:20:00,
2013-01-04 04:22:00,39.7,37.3,30.23,SSE,155,0.0,-999.0,91,0.00,,,0.00,0,Wunderground v.1.15,2013-01-04 12:22:00,
2013-01-04 04:24:00,39.5,37.1,30.23,NE,50,0.0,-999.0,91,0.00,,,0.00,0,Wunderground v.1.15,2013-01-04 12:24:00,
2013-01-04 04:25:00,39.5,37.1,30.23,NE,50,0.0,-999.0,91,0.00,,,0.00,0,Wunderground v.1.15,2013-01-04 12:25:00,
2013-01-04 04:26:00,39.5,37.1,30.23,NE,50,0.0,-999.0,91,0.00,,,0.00,0,Wunderground v.1.15,2013-01-04 12:26:00,
2013-01-04 04:27:00,39.5,37.1,30.23,NE,50,0.0,-999.0,91,0.00,,,0.00,0,Wunderground v.1.15,2013-01-04 12:27:00,
2013-01-04 04:29:00,39.5,37.1,30.23,NE,50,0.0,-999.0,91,0.00,,,0.00,0,Wunderground v.1.15,2013-01-04 12:29:00,
2013-01-04 04:30:00,39.5,37.1,30.24,NE,50,0.0,-999.0,91,0.00,,,0.00,0,Wunderground v.1.15,2013-01-04 12:30:00,
2013-01-04 04:31:00,39.5,37.1,30.24,NE,50,0.0,-999.0,91,0.00,,,0.00,0,Wunderground v.1.15,2013-01-04 12:31:00,
2013-01-04 04:32:00,39.5,37.1,30.24,NE,50,0.0,-999.0,91,0.00,,,0.00,0,Wunderground v.1.15,2013-01-04 12:32:00,
2013-01-04 04:34:00,39.7,37.3,30.24,NE,50,0.0,-999.0,91,0.00,,,0.00,0,Wunderground v.1.15,2013-01-04 12:34:00,
2013-01-04 04:36:00,39.7,37.3,30.24,SE,141,3.0,-999.0,91,0.00,,,0.00,0,Wunderground v.1.15,2013-01-04 12:36:00,
2013-01-04 04:37:00,39.7,37.3,30.24,SE,131,0.0,-999.0,91,0.00,,,0.00,0,Wunderground v.1.15,2013-01-04 12:37:00,
2013-01-04 04:39:00,39.7,37.3,30.24,SE,131,0.0,-999.0,91,0.00,,,0.00,0,Wunderground v.1.15,2013-01-04 12:39:00,
2013-01-04 04:41:00,39.8,37.4,30.24,SE,131,0.0,-999.0,91,0.00,,,0.00,0,Wunderground v.1.15,2013-01-04 12:41:00,
2013-01-04 04:43:00,39.8,37.4,30.24,SE,131,0.0,-999.0,91,0.00,,,0.00,0,Wunderground v.1.15,2013-01-04 12:43:00,
2013-01-04 04:44:00,39.8,37.4,30.24,SE,146,2.0,-999.0,91,0.00,,,0.00,0,Wunderground v.1.15,2013-01-04 12:44:00,
2013-01-04 04:46:00,39.8,37.4,30.24,SE,146,0.0,-999.0,91,0.00,,,0.00,0,Wunderground v.1.15,2013-01-04 12:46:00,
2013-01-04 04:47:00,39.8,37.4,30.24,East,93,2.0,-999.0,91,0.00,,,0.00,0,Wunderground v.1.15,2013-01-04 12:47:00,
2013-01-04 04:48:00,39.9,37.5,30.24,East,93,0.0,-999.0,91,0.00,,,0.00,0,Wunderground v.1.15,2013-01-04 12:48:00,
2013-01-04 04:50:00,39.9,37.5,30.24,East,93,0.0,-999.0,91,0.00,,,0.00,0,Wunderground v.1.15,2013-01-04 12:50:00,
2013-01-04 04:52:00,39.9,37.5,30.24,East,95,1.0,-999.0,91,0.00,,,0.00,0,Wunderground v.1.15,2013-01-04 12:52:00,
2013-01-04 04:53:00,39.9,37.5,30.24,East,97,1.0,-999.0,91,0.00,,,0.00,0,Wunderground v.1.15,2013-01-04 12:53:00,
2013-01-04 04:55:00,39.9,37.5,30.24,East,95,0.0,-999.0,91,0.00,,,0.00,0,Wunderground v.1.15,2013-01-04 12:55:00,
2013-01-04 04:57:00,40.1,37.7,30.24,ESE,104,2.0,-999.0,91,0.00,,,0.00,0,Wunderground v.1.15,2013-01-04 12:57:00,
2013-01-04 04:59:00,40.1,37.7,30.24,South,176,0.0,-999.0,91,0.00,,,0.00,0,Wunderground v.1.15,2013-01-04 12:59:00,
2013-01-04 05:00:00,40.1,37.7,30.24,SSE,155,3.0,-999.0,91,0.00,,,0.00,0,Wunderground v.1.15,2013-01-04 13:00:00,
2013-01-04 05:03:00,40.1,37.7,30.24,South,186,0.0,-999.0,91,0.00,,,0.00,0,Wunderground v.1.15,2013-01-04 13:03:00,
2013-01-04 05:04:00,40.1,37.7,30.24,ENE,64,0.0,-999.0,91,0.00,,,0.00,0,Wunderground v.1.15,2013-01-04 13:04:00,
2013-01-04 05:06:00,40.1,37.7,30.24,SE,135,0.0,-999.0,91,0.00,,,0.00,0,Wunderground v.1.15,2013-01-04 13:06:00,
2013-01-04 05:08:00,40.1,37.7,30.24,SE,131,0.0,-999.0,91,0.00,,,0.00,0,Wunderground v.1.15,2013-01-04 13:08:00,
2013-01-04 05:10:00,40.1,37.7,30.24,SE,135,0.0,-999.0,91,0.00,,,0.00,0,Wunderground v.1.15,2013-01-04 13:10:00,
2013-01-04 05:11:00,40.1,37.7,30.24,SE,135,0.0,-999.0,91,0.00,,,0.00,0,Wunderground v.1.15,2013-01-04 13:11:00,
2013-01-04 05:13:00,40.1,37.7,30.24,SE,135,0.0,-999.0,91,0.00,,,0.00,0,Wunderground v.1.15,2013-01-04 13:13:00,
2013-01-04 05:14:00,40.2,37.8,30.24,SE,135,0.0,-999.0,91,0.00,,,0.00,0,Wunderground v.1.15,2013-01-04 13:14:00,
2013-01-04 05:15:00,40.2,37.8,30.24,SE,128,5.0,-999.0,91,0.00,,,0.00,0,Wunderground v.1.15,2013-01-04 13:15:00,
2013-01-04 05:16:00,40.2,37.8,30.24,SE,145,0.0,-999.0,91,0.00,,,0.00,0,Wunderground v.1.15,2013-01-04 13:16:00,
2013-01-04 05:18:00,40.2,37.8,30.24,SE,145,0.0,-999.0,91,0.00,,,0.00,0,Wunderground v.1.15,2013-01-04 13:18:00,
2013-01-04 05:19:00,40.2,37.8,30.24,SE,145,0.0,-999.0,91,0.00,,,0.00,0,Wunderground v.1.15,2013-01-04 13:19:00,
2013-01-04 05:20:00,40.2,37.8,30.24,SE,145,0.0,-999.0,91,0.00,,,0.00,0,Wunderground v.1.15,2013-01-04 13:20:00,
2013-01-04 05:22:00,40.2,37.8,30.24,SE,145,0.0,-999.0,91,0.00,,,0.00,0,Wunderground v.1.15,2013-01-04 13:22:00,
2013-01-04 05:23:00,40.2,37.8,30.24,SE,145,0.0,-999.0,91,0.00,,,0.00,0,Wunderground v.1.15,2013-01-04 13:23:00,
2013-01-04 05:24:00,40.2,37.8,30.24,SE,133,0.0,-999.0,91,0.00,,,0.00,0,Wunderground v.1.15,2013-01-04 13:24:00,
2013-01-04 05:26:00,40.2,37.8,30.24,ESE,105,2.0,-999.0,91,0.00,,,0.00,0,Wunderground v.1.15,2013-01-04 13:26:00,
2013-01-04 05:28:00,40.4,38.0,30.24,ESE,105,1.0,-999.0,91,0.00,,,0.00,0,Wunderground v.1.15,2013-01-04 13:28:00,
2013-01-04 05:29:00,40.4,38.0,30.24,ESE,105,0.0,-999.0,91,0.00,,,0.00,0,Wunderground v.1.15,2013-01-04 13:29:00,
2013-01-04 05:31:00,40.4,38.0,30.24,ESE,105,0.0,-999.0,91,0.00,,,0.00,0,Wunderground v.1.15,2013-01-04 13:31:00,
2013-01-04 05:33:00,40.4,38.0,30.24,ESE,105,0.0,-999.0,91,0.00,,,0.00,0,Wunderground v.1.15,2013-01-04 13:33:00,
2013-01-04 05:34:00,40.4,38.0,30.24,ESE,105,0.0,-999.0,91,0.00,,,0.00,0,Wunderground v.1.15,2013-01-04 13:34:00,
2013-01-04 05:36:00,40.4,38.0,30.24,ESE,105,0.0,-999.0,91,0.00,,,0.00,0,Wunderground v.1.15,2013-01-04 13:36:00,
2013-01-04 05:38:00,40.4,38.0,30.24,ESE,105,0.0,-999.0,91,0.00,,,0.00,0,Wunderground v.1.15,2013-01-04 13:38:00,
2013-01-04 05:39:00,40.4,38.0,30.24,ESE,105,0.0,-999.0,91,0.00,,,0.00,0,Wunderground v.1.15,2013-01-04 13:39:00,
2013-01-04 05:40:00,40.4,38.0,30.24,ESE,107,0.0,-999.0,91,0.00,,,0.00,0,Wunderground v.1.15,2013-01-04 13:40:00,
2013-01-04 05:41:00,40.4,38.0,30.24,ESE,105,0.0,-999.0,91,0.00,,,0.00,0,Wunderground v.1.15,2013-01-04 13:41:00,
2013-01-04 05:43:00,40.4,38.0,30.24,ESE,105,0.0,-999.0,91,0.00,,,0.00,0,Wunderground v.1.15,2013-01-04 13:43:00,
2013-01-04 05:44:00,40.4,38.0,30.24,ESE,105,0.0,-999.0,91,0.00,,,0.00,0,Wunderground v.1.15,2013-01-04 13:44:00,
2013-01-04 05:45:00,40.4,38.0,30.25,ESE,105,0.0,-999.0,91,0.00,,,0.00,0,Wunderground v.1.15,2013-01-04 13:45:00,
2013-01-04 05:46:00,40.4,38.0,30.25,ESE,105,0.0,-999.0,91,0.00,,,0.00,0,Wunderground v.1.15,2013-01-04 13:46:00,
2013-01-04 05:48:00,40.2,37.8,30.25,ESE,107,0.0,-999.0,91,0.00,,,0.00,0,Wunderground v.1.15,2013-01-04 13:48:00,
2013-01-04 05:49:00,40.2,37.8,30.25,ESE,105,0.0,-999.0,91,0.00,,,0.00,0,Wunderground v.1.15,2013-01-04 13:49:00,
2013-01-04 05:50:00,40.2,37.8,30.25,ESE,111,0.0,-999.0,91,0.00,,,0.00,0,Wunderground v.1.15,2013-01-04 13:50:00,
2013-01-04 05:51:00,40.2,37.8,30.25,ESE,111,0.0,-999.0,91,0.00,,,0.00,0,Wunderground v.1.15,2013-01-04 13:51:00,
2013-01-04 05:54:00,40.2,37.8,30.25,ESE,111,0.0,-999.0,91,0.00,,,0.00,0,Wunderground v.1.15,2013-01-04 13:54:00,
2013-01-04 05:55:00,40.2,37.8,30.25,ESE,111,0.0,-999.0,91,0.00,,,0.00,0,Wunderground v.1.15,2013-01-04 13:55:00,
2013-01-04 05:56:00,40.2,37.8,30.25,ESE,111,0.0,-999.0,91,0.00,,,0.00,0,Wunderground v.1.15,2013-01-04 13:56:00,
2013-01-04 05:59:00,40.2,37.8,30.25,ESE,111,0.0,-999.0,91,0.00,,,0.00,0,Wunderground v.1.15,2013-01-04 13:59:00,
2013-01-04 06:00:00,40.2,37.8,30.25,ESE,111,0.0,-999.0,91,0.00,,,0.00,0,Wunderground v.1.15,2013-01-04 14:00:00,
2013-01-04 06:01:00,40.2,37.8,30.25,ESE,111,0.0,-999.0,91,0.00,,,0.00,0,Wunderground v.1.15,2013-01-04 14:01:00,
2013-01-04 06:02:00,40.2,37.8,30.25,ESE,111,1.0,-999.0,91,0.00,,,0.00,0,Wunderground v.1.15,2013-01-04 14:02:00,
2013-01-04 06:04:00,40.2,37.8,30.25,SE,128,0.0,-999.0,91,0.00,,,0.00,0,Wunderground v.1.15,2013-01-04 14:04:00,
2013-01-04 06:05:00,40.2,37.8,30.25,SE,128,1.0,-999.0,91,0.00,,,0.00,0,Wunderground v.1.15,2013-01-04 14:05:00,
2013-01-04 06:06:00,40.2,37.8,30.25,SE,128,0.0,-999.0,91,0.00,,,0.00,0,Wunderground v.1.15,2013-01-04 14:06:00,
2013-01-04 06:07:00,40.2,37.8,30.25,SE,128,0.0,-999.0,91,0.00,,,0.00,0,Wunderground v.1.15,2013-01-04 14:07:00,
2013-01-04 06:09:00,40.4,38.0,30.25,SE,124,0.0,-999.0,91,0.00,,,0.00,0,Wunderground v.1.15,2013-01-04 14:09:00,
2013-01-04 06:11:00,40.4,38.0,30.25,SE,124,0.0,-999.0,91,0.00,,,0.00,0,Wunderground v.1.15,2013-01-04 14:11:00,
2013-01-04 06:12:00,40.4,38.0,30.25,SE,124,0.0,-999.0,91,0.00,,,0.00,0,Wunderground v.1.15,2013-01-04 14:12:00,
2013-01-04 06:14:00,40.4,38.0,30.25,SE,124,0.0,-999.0,91,0.00,,,0.00,0,Wunderground v.1.15,2013-01-04 14:14:00,
2013-01-04 06:16:00,40.5,38.1,30.25,SE,124,1.0,-999.0,91,0.00,,,0.00,0,Wunderground v.1.15,2013-01-04 14:16:00,
2013-01-04 06:17:00,40.5,38.1,30.25,ESE,122,1.0,-999.0,91,0.00,,,0.00,0,Wunderground v.1.15,2013-01-04 14:17:00,
2013-01-04 06:18:00,40.5,38.1,30.25,ESE,122,0.0,-999.0,91,0.00,,,0.00,0,Wunderground v.1.15,2013-01-04 14:18:00,
2013-01-04 06:19:00,40.5,38.1,30.25,ESE,117,1.0,-999.0,91,0.00,,,0.00,0,Wunderground v.1.15,2013-01-04 14:19:00,
2013-01-04 06:21:00,40.5,38.1,30.25,ESE,118,0.0,-999.0,91,0.00,,,0.00,0,Wunderground v.1.15,2013-01-04 14:21:00,
2013-01-04 06:22:00,40.5,38.1,30.25,ESE,118,0.0,-999.0,91,0.00,,,0.00,0,Wunderground v.1.15,2013-01-04 14:22:00,
2013-01-04 06:23:00,40.5,38.1,30.25,ESE,117,0.0,-999.0,91,0.00,,,0.00,0,Wunderground v.1.15,2013-01-04 14:23:00,
2013-01-04 06:25:00,40.5,38.1,30.25,ESE,117,0.0,-999.0,91,0.00,,,0.00,0,Wunderground v.1.15,2013-01-04 14:25:00,
2013-01-04 06:26:00,40.5,38.1,30.25,ESE,118,1.0,-999.0,91,0.00,,,0.00,0,Wunderground v.1.15,2013-01-04 14:26:00,
2013-01-04 06:27:00,40.5,38.1,30.25,ESE,118,1.0,-999.0,91,0.00,,,0.00,0,Wunderground v.1.15,2013-01-04 14:27:00,
2013-01-04 06:28:00,40.5,38.1,30.25,ESE,118,0.0,-999.0,91,0.00,,,0.00,0,Wunderground v.1.15,2013-01-04 14:28:00,
2013-01-04 06:30:00,40.7,38.3,30.25,ESE,117,0.0,-999.0,91,0.00,,,0.00,0,Wunderground v.1.15,2013-01-04 14:30:00,
2013-01-04 06:31:00,40.5,38.1,30.25,ESE,117,0.0,-999.0,91,0.00,,,0.00,0,Wunderground v.1.15,2013-01-04 14:31:00,
2013-01-04 06:32:00,40.5,38.1,30.25,ESE,118,0.0,-999.0,91,0.00,,,0.00,0,Wunderground v.1.15,2013-01-04 14:32:00,
2013-01-04 06:34:00,40.5,38.1,30.25,ESE,117,0.0,-999.0,91,0.00,,,0.00,0,Wunderground v.1.15,2013-01-04 14:34:00,
2013-01-04 06:35:00,40.5,38.1,30.25,South,179,2.0,-999.0,91,0.00,,,0.00,0,Wunderground v.1.15,2013-01-04 14:35:00,
2013-01-04 06:36:00,40.5,38.1,30.25,SSE,162,0.0,-999.0,91,0.00,,,0.00,0,Wunderground v.1.15,2013-01-04 14:36:00,
2013-01-04 06:37:00,40.5,38.1,30.25,SSE,162,0.0,-999.0,91,0.00,,,0.00,0,Wunderground v.1.15,2013-01-04 14:37:00,
2013-01-04 06:39:00,40.5,38.1,30.25,SSE,162,0.0,-999.0,91,0.00,,,0.00,0,Wunderground v.1.15,2013-01-04 14:39:00,
2013-01-04 06:41:00,40.7,38.3,30.25,SE,146,0.0,-999.0,91,0.00,,,0.00,0,Wunderground v.1.15,2013-01-04 14:41:00,
2013-01-04 06:42:00,40.7,38.3,30.25,SE,146,0.0,-999.0,91,0.00,,,0.00,0,Wunderground v.1.15,2013-01-04 14:42:00,
2013-01-04 06:43:00,40.7,38.3,30.25,SE,146,0.0,-999.0,91,0.00,,,0.00,0,Wunderground v.1.15,2013-01-04 14:43:00,
2013-01-04 06:44:00,40.7,38.3,30.25,SE,146,0.0,-999.0,91,0.00,,,0.00,0,Wunderground v.1.15,2013-01-04 14:44:00,
2013-01-04 06:46:00,40.7,38.3,30.26,SE,146,0.0,-999.0,91,0.00,,,0.00,0,Wunderground v.1.15,2013-01-04 14:46:00,
2013-01-04 06:47:00,40.7,38.3,30.26,SE,146,0.0,-999.0,91,0.00,,,0.00,0,Wunderground v.1.15,2013-01-04 14:47:00,
2013-01-04 06:49:00,40.7,38.3,30.26,SE,146,0.0,-999.0,91,0.00,,,0.00,0,Wunderground v.1.15,2013-01-04 14:49:00,
2013-01-04 06:52:00,40.7,38.3,30.26,SE,146,0.0,-999.0,91,0.00,,,0.00,0,Wunderground v.1.15,2013-01-04 14:52:00,
2013-01-04 06:53:00,40.7,38.3,30.26,SE,146,0.0,-999.0,91,0.00,,,0.00,0,Wunderground v.1.15,2013-01-04 14:53:00,
2013-01-04 06:55:00,40.7,38.3,30.26,SE,146,0.0,-999.0,91,0.00,,,0.00,0,Wunderground v.1.15,2013-01-04 14:55:00,
2013-01-04 06:57:00,40.7,38.3,30.26,SE,146,0.0,-999.0,91,0.00,,,0.00,0,Wunderground v.1.15,2013-01-04 14:57:00,
2013-01-04 06:58:00,40.7,38.3,30.26,SE,146,0.0,-999.0,91,0.00,,,0.00,0,Wunderground v.1.15,2013-01-04 14:58:00,
2013-01-04 07:00:00,40.7,38.3,30.26,SE,146,0.0,-999.0,91,0.00,,,0.00,0,Wunderground v.1.15,2013-01-04 15:00:00,
2013-01-04 07:02:00,40.8,38.4,30.26,SE,146,0.0,-999.0,91,0.00,,,0.00,0,Wunderground v.1.15,2013-01-04 15:02:00,
2013-01-04 07:03:00,40.8,38.4,30.26,SE,146,0.0,-999.0,91,0.00,,,0.00,0,Wunderground v.1.15,2013-01-04 15:03:00,
2013-01-04 07:05:00,40.8,38.4,30.26,SE,146,0.0,-999.0,91,0.00,,,0.00,0,Wunderground v.1.15,2013-01-04 15:05:00,
2013-01-04 07:07:00,40.8,38.4,30.26,SE,146,0.0,-999.0,91,0.00,,,0.00,0,Wunderground v.1.15,2013-01-04 15:07:00,
2013-01-04 07:08:00,40.8,38.4,30.26,SE,146,0.0,-999.0,91,0.00,,,0.00,0,Wunderground v.1.15,2013-01-04 15:08:00,
2013-01-04 07:10:00,40.8,38.4,30.26,SE,146,0.0,-999.0,91,0.00,,,0.00,0,Wunderground v.1.15,2013-01-04 15:10:00,
2013-01-04 07:12:00,40.8,38.4,30.26,SE,146,0.0,-999.0,91,0.00,,,0.00,0,Wunderground v.1.15,2013-01-04 15:12:00,
2013-01-04 07:13:00,40.8,38.4,30.26,SE,146,0.0,-999.0,91,0.00,,,0.00,0,Wunderground v.1.15,2013-01-04 15:13:00,
2013-01-04 07:15:00,40.8,38.4,30.26,SE,146,1.0,-999.0,91,0.00,,,0.00,0,Wunderground v.1.15,2013-01-04 15:15:00,
2013-01-04 07:17:00,40.9,38.5,30.26,SE,146,0.0,-999.0,91,0.00,,,0.00,0,Wunderground v.1.15,2013-01-04 15:17:00,
2013-01-04 07:18:00,40.9,38.5,30.26,SE,146,1.0,-999.0,91,0.00,,,0.00,0,Wunderground v.1.15,2013-01-04 15:18:00,
2013-01-04 07:20:00,40.9,38.5,30.26,SE,146,0.0,-999.0,91,0.00,,,0.00,0,Wunderground v.1.15,2013-01-04 15:20:00,
2013-01-04 07:22:00,40.9,38.5,30.26,SE,142,0.0,-999.0,91,0.00,,,0.00,0,Wunderground v.1.15,2013-01-04 15:22:00,
2013-01-04 07:23:00,40.9,38.5,30.26,SE,142,0.0,-999.0,91,0.00,,,0.00,0,Wunderground v.1.15,2013-01-04 15:23:00,
2013-01-04 07:24:00,40.9,38.5,30.26,SE,142,0.0,-999.0,91,0.00,,,0.00,0,Wunderground v.1.15,2013-01-04 15:24:00,
2013-01-04 07:26:00,41.1,38.7,30.26,SE,142,1.0,-999.0,91,0.00,,,0.00,0,Wunderground v.1.15,2013-01-04 15:26:00,
2013-01-04 07:27:00,41.1,38.7,30.26,SE,142,0.0,-999.0,91,0.00,,,0.00,0,Wunderground v.1.15,2013-01-04 15:27:00,
2013-01-04 07:28:00,41.1,38.7,30.26,SE,141,0.0,-999.0,91,0.00,,,0.00,0,Wunderground v.1.15,2013-01-04 15:28:00,
2013-01-04 07:29:00,41.1,38.7,30.26,SE,142,0.0,-999.0,91,0.00,,,0.00,0,Wunderground v.1.15,2013-01-04 15:29:00,
2013-01-04 07:31:00,41.1,38.7,30.26,SSW,196,0.0,-999.0,91,0.00,,,0.00,0,Wunderground v.1.15,2013-01-04 15:31:00,
2013-01-04 07:33:00,41.1,38.7,30.26,SSE,165,0.0,-999.0,91,0.00,,,0.00,0,Wunderground v.1.15,2013-01-04 15:33:00,
2013-01-04 07:34:00,41.1,38.7,30.26,SSE,166,0.0,-999.0,91,0.00,,,0.00,0,Wunderground v.1.15,2013-01-04 15:34:00,
2013-01-04 07:36:00,41.1,38.7,30.26,SSE,165,0.0,-999.0,91,0.00,,,0.00,0,Wunderground v.1.15,2013-01-04 15:36:00,
2013-01-04 07:38:00,41.1,38.7,30.26,SSE,165,0.0,-999.0,91,0.00,,,0.00,0,Wunderground v.1.15,2013-01-04 15:38:00,
2013-01-04 07:39:00,41.1,38.7,30.26,SSE,165,1.0,-999.0,91,0.00,,,0.00,0,Wunderground v.1.15,2013-01-04 15:39:00,
2013-01-04 07:41:00,41.1,38.7,30.26,SE,141,0.0,-999.0,91,0.00,,,0.00,0,Wunderground v.1.15,2013-01-04 15:41:00,
2013-01-04 07:44:00,41.1,38.7,30.26,SE,141,0.0,-999.0,91,0.00,,,0.00,0,Wunderground v.1.15,2013-01-04 15:44:00,
2013-01-04 07:46:00,41.2,38.8,30.27,SE,142,2.0,-999.0,91,0.00,,,0.00,0,Wunderground v.1.15,2013-01-04 15:46:00,
2013-01-04 07:49:00,41.2,38.8,30.27,SE,142,0.0,-999.0,91,0.00,,,0.00,0,Wunderground v.1.15,2013-01-04 15:49:00,
2013-01-04 07:50:00,41.2,38.8,30.27,NE,40,0.0,-999.0,91,0.00,,,0.00,0,Wunderground v.1.15,2013-01-04 15:50:00,
2013-01-04 07:52:00,41.2,38.8,30.27,NE,56,0.0,-999.0,91,0.00,,,0.00,0,Wunderground v.1.15,2013-01-04 15:52:00,
2013-01-04 07:54:00,41.2,38.8,30.27,ESE,102,0.0,-999.0,91,0.00,,,0.00,0,Wunderground v.1.15,2013-01-04 15:54:00,
2013-01-04 07:55:00,41.2,38.8,30.27,ESE,102,0.0,-999.0,91,0.00,,,0.00,0,Wunderground v.1.15,2013-01-04 15:55:00,
2013-01-04 07:57:00,41.2,38.8,30.27,ESE,102,0.0,-999.0,91,0.00,,,0.00,0,Wunderground v.1.15,2013-01-04 15:57:00,
2013-01-04 07:59:00,41.2,38.8,30.27,ESE,102,1.0,-999.0,91,0.00,,,0.00,0,Wunderground v.1.15,2013-01-04 15:59:00,
2013-01-04 08:00:00,41.2,38.8,30.27,ESE,102,0.0,-999.0,91,0.00,,,0.00,0,Wunderground v.1.15,2013-01-04 16:00:00,
2013-01-04 08:02:00,41.2,38.8,30.27,ESE,102,0.0,-999.0,91,0.00,,,0.00,0,Wunderground v.1.15,2013-01-04 16:02:00,
2013-01-04 08:04:00,41.2,38.8,30.27,ESE,102,0.0,-999.0,91,0.00,,,0.00,0,Wunderground v.1.15,2013-01-04 16:04:00,
2013-01-04 08:05:00,41.2,38.8,30.27,ESE,102,1.0,-999.0,91,0.00,,,0.00,0,Wunderground v.1.15,2013-01-04 16:05:00,
2013-01-04 08:06:00,41.2,38.8,30.27,ESE,102,0.0,-999.0,91,0.00,,,0.00,0,Wunderground v.1.15,2013-01-04 16:06:00,
2013-01-04 08:07:00,41.4,39.0,30.27,ESE,102,0.0,-999.0,91,0.00,,,0.00,0,Wunderground v.1.15,2013-01-04 16:07:00,
2013-01-04 08:10:00,41.4,39.0,30.27,ESE,102,0.0,-999.0,91,0.00,,,0.00,0,Wunderground v.1.15,2013-01-04 16:10:00,
2013-01-04 08:11:00,41.4,39.0,30.27,ESE,102,0.0,-999.0,91,0.00,,,0.00,0,Wunderground v.1.15,2013-01-04 16:11:00,
2013-01-04 08:13:00,41.4,39.0,30.27,ESE,102,0.0,-999.0,91,0.00,,,0.00,0,Wunderground v.1.15,2013-01-04 16:13:00,
2013-01-04 08:15:00,41.5,39.1,30.27,ESE,102,0.0,-999.0,91,0.00,,,0.00,0,Wunderground v.1.15,2013-01-04 16:15:00,
2013-01-04 08:16:00,41.5,39.1,30.27,ESE,102,0.0,-999.0,91,0.00,,,0.00,0,Wunderground v.1.15,2013-01-04 16:16:00,
2013-01-04 08:18:00,41.5,39.1,30.27,ESE,102,1.0,-999.0,91,0.00,,,0.00,0,Wunderground v.1.15,2013-01-04 16:18:00,
2013-01-04 08:20:00,41.5,39.1,30.27,ESE,102,0.0,-999.0,91,0.00,,,0.00,0,Wunderground v.1.15,2013-01-04 16:20:00,
2013-01-04 08:21:00,41.5,39.1,30.27,ESE,102,0.0,-999.0,91,0.00,,,0.00,0,Wunderground v.1.15,2013-01-04 16:21:00,
2013-01-04 08:23:00,41.5,39.1,30.27,SE,126,0.0,-999.0,91,0.00,,,0.00,0,Wunderground v.1.15,2013-01-04 16:23:00,
2013-01-04 08:25:00,41.5,39.1,30.27,SE,126,0.0,-999.0,91,0.00,,,0.00,0,Wunderground v.1.15,2013-01-04 16:25:00,
2013-01-04 08:26:00,41.7,39.3,30.27,SE,126,0.0,-999.0,91,0.00,,,0.00,0,Wunderground v.1.15,2013-01-04 16:26:00,
2013-01-04 08:29:00,41.7,39.3,30.27,SE,126,0.0,-999.0,91,0.00,,,0.00,0,Wunderground v.1.15,2013-01-04 16:29:00,
2013-01-04 08:30:00,41.7,39.3,30.27,SE,126,0.0,-999.0,91,0.00,,,0.00,0,Wunderground v.1.15,2013-01-04 16:30:00,
2013-01-04 08:31:00,41.7,39.3,30.28,SE,126,0.0,-999.0,91,0.00,,,0.00,0,Wunderground v.1.15,2013-01-04 16:31:00,
2013-01-04 08:34:00,41.7,39.3,30.28,SE,126,0.0,-999.0,91,0.00,,,0.00,0,Wunderground v.1.15,2013-01-04 16:34:00,
2013-01-04 08:35:00,41.7,39.3,30.28,SE,126,0.0,-999.0,91,0.00,,,0.00,0,Wunderground v.1.15,2013-01-04 16:35:00,
2013-01-04 08:37:00,41.7,39.3,30.28,SE,126,0.0,-999.0,91,0.00,,,0.00,0,Wunderground v.1.15,2013-01-04 16:37:00,
2013-01-04 08:39:00,41.7,39.3,30.28,SE,126,0.0,-999.0,91,0.00,,,0.00,0,Wunderground v.1.15,2013-01-04 16:39:00,
2013-01-04 08:40:00,41.7,39.3,30.28,SE,126,0.0,-999.0,91,0.00,,,0.00,0,Wunderground v.1.15,2013-01-04 16:40:00,
2013-01-04 08:42:00,41.7,39.3,30.28,SE,126,0.0,-999.0,91,0.00,,,0.00,0,Wunderground v.1.15,2013-01-04 16:42:00,
2013-01-04 08:44:00,41.8,39.4,30.28,ESE,122,0.0,-999.0,91,0.00,,,0.00,0,Wunderground v.1.15,2013-01-04 16:44:00,
2013-01-04 08:45:00,41.8,39.4,30.29,SE,126,1.0,-999.0,91,0.00,,,0.00,0,Wunderground v.1.15,2013-01-04 16:45:00,
2013-01-04 08:47:00,41.8,39.4,30.29,SE,126,0.0,-999.0,91,0.00,,,0.00,0,Wunderground v.1.15,2013-01-04 16:47:00,
2013-01-04 08:50:00,41.8,39.4,30.29,SE,126,0.0,-999.0,91,0.00,,,0.00,0,Wunderground v.1.15,2013-01-04 16:50:00,
2013-01-04 08:51:00,41.8,39.4,30.29,SE,126,1.0,-999.0,91,0.00,,,0.00,0,Wunderground v.1.15,2013-01-04 16:51:00,
2013-01-04 08:52:00,41.8,39.4,30.29,SE,126,0.0,-999.0,91,0.00,,,0.00,0,Wunderground v.1.15,2013-01-04 16:52:00,
2013-01-04 08:55:00,41.8,39.4,30.29,SE,126,0.0,-999.0,91,0.00,,,0.00,0,Wunderground v.1.15,2013-01-04 16:55:00,
2013-01-04 08:56:00,41.8,39.4,30.29,SE,126,0.0,-999.0,91,0.00,,,0.00,0,Wunderground v.1.15,2013-01-04 16:56:00,
2013-01-04 08:57:00,41.8,39.4,30.29,SSE,152,0.0,-999.0,91,0.00,,,0.00,0,Wunderground v.1.15,2013-01-04 16:57:00,
2013-01-04 09:00:00,41.8,39.4,30.29,SSE,152,0.0,-999.0,91,0.00,,,0.00,0,Wunderground v.1.15,2013-01-04 17:00:00,
2013-01-04 09:02:00,41.8,39.4,30.29,SSE,152,0.0,-999.0,91,0.00,,,0.00,0,Wunderground v.1.15,2013-01-04 17:02:00,
2013-01-04 09:03:00,41.9,39.5,30.29,SSE,152,0.0,-999.0,91,0.00,,,0.00,0,Wunderground v.1.15,2013-01-04 17:03:00,
2013-01-04 09:06:00,41.9,39.5,30.29,SSE,152,0.0,-999.0,91,0.00,,,0.00,0,Wunderground v.1.15,2013-01-04 17:06:00,
2013-01-04 09:07:00,41.9,39.5,30.29,SSE,152,0.0,-999.0,91,0.00,,,0.01,0,Wunderground v.1.15,2013-01-04 17:07:00,
2013-01-04 09:08:00,41.9,39.5,30.29,SSE,152,0.0,-999.0,91,0.00,,,0.01,0,Wunderground v.1.15,2013-01-04 17:08:00,
2013-01-04 09:11:00,41.9,39.5,30.29,SSE,152,0.0,-999.0,91,0.00,,,0.01,0,Wunderground v.1.15,2013-01-04 17:11:00,
2013-01-04 09:12:00,41.9,39.5,30.29,SSE,152,0.0,-999.0,91,0.00,,,0.01,0,Wunderground v.1.15,2013-01-04 17:12:00,
2013-01-04 09:13:00,41.9,39.5,30.29,SSE,152,0.0,-999.0,91,0.00,,,0.01,0,Wunderground v.1.15,2013-01-04 17:13:00,
2013-01-04 09:17:00,41.9,39.5,30.30,East,93,1.0,-999.0,91,0.00,,,0.01,5,Wunderground v.1.15,2013-01-04 17:17:00,
2013-01-04 09:18:00,41.9,39.5,30.30,South,173,1.0,-999.0,91,0.00,,,0.01,5,Wunderground v.1.15,2013-01-04 17:18:00,
2013-01-04 09:22:00,42.1,39.7,30.30,South,172,0.0,-999.0,91,0.00,,,0.01,5,Wunderground v.1.15,2013-01-04 17:22:00,
2013-01-04 09:23:00,42.1,39.7,30.30,South,172,0.0,-999.0,91,0.00,,,0.01,5,Wunderground v.1.15,2013-01-04 17:23:00,
2013-01-04 09:24:00,42.1,39.7,30.30,South,172,0.0,-999.0,91,0.00,,,0.01,5,Wunderground v.1.15,2013-01-04 17:24:00,
2013-01-04 09:27:00,42.1,39.7,30.30,South,172,0.0,-999.0,91,0.00,,,0.01,7,Wunderground v.1.15,2013-01-04 17:27:00,
2013-01-04 09:29:00,42.1,39.7,30.30,South,172,0.0,-999.0,91,0.00,,,0.01,7,Wunderground v.1.15,2013-01-04 17:29:00,
2013-01-04 09:32:00,42.1,39.7,30.30,South,172,0.0,-999.0,91,0.00,,,0.01,5,Wunderground v.1.15,2013-01-04 17:32:00,
2013-01-04 09:33:00,42.1,39.7,30.30,South,172,0.0,-999.0,91,0.00,,,0.01,5,Wunderground v.1.15,2013-01-04 17:33:00,
2013-01-04 09:34:00,42.1,39.7,30.30,South,172,0.0,-999.0,91,0.00,,,0.01,5,Wunderground v.1.15,2013-01-04 17:34:00,
2013-01-04 09:35:00,42.1,39.7,30.30,South,172,0.0,-999.0,91,0.00,,,0.01,9,Wunderground v.1.15,2013-01-04 17:35:00,
2013-01-04 09:37:00,42.1,39.7,30.30,South,172,0.0,-999.0,91,0.00,,,0.01,9,Wunderground v.1.15,2013-01-04 17:37:00,
2013-01-04 09:38:00,42.1,39.7,30.30,South,172,0.0,-999.0,91,0.00,,,0.01,9,Wunderground v.1.15,2013-01-04 17:38:00,
2013-01-04 09:39:00,42.1,39.7,30.30,South,172,0.0,-999.0,91,0.00,,,0.01,9,Wunderground v.1.15,2013-01-04 17:39:00,
2013-01-04 09:40:00,42.1,39.7,30.30,South,172,0.0,-999.0,91,0.00,,,0.01,9,Wunderground v.1.15,2013-01-04 17:40:00,
2013-01-04 09:42:00,42.1,39.7,30.30,SE,133,0.0,-999.0,91,0.00,,,0.01,9,Wunderground v.1.15,2013-01-04 17:42:00,
2013-01-04 09:43:00,42.1,39.7,30.30,SE,132,0.0,-999.0,91,0.00,,,0.01,5,Wunderground v.1.15,2013-01-04 17:43:00,
2013-01-04 09:44:00,42.1,39.7,30.30,SE,133,0.0,-999.0,91,0.00,,,0.01,5,Wunderground v.1.15,2013-01-04 17:44:00,
2013-01-04 09:46:00,42.1,39.7,30.30,SE,133,0.0,-999.0,91,0.00,,,0.01,5,Wunderground v.1.15,2013-01-04 17:46:00,
2013-01-04 09:48:00,42.2,39.8,30.30,SE,133,0.0,-999.0,91,0.00,,,0.01,5,Wunderground v.1.15,2013-01-04 17:48:00,
2013-01-04 09:49:00,42.2,39.8,30.30,SE,133,0.0,-999.0,91,0.00,,,0.01,5,Wunderground v.1.15,2013-01-04 17:49:00,
2013-01-04 09:51:00,42.2,39.8,30.30,SE,133,0.0,-999.0,91,0.00,,,0.01,5,Wunderground v.1.15,2013-01-04 17:51:00,
2013-01-04 09:53:00,42.2,39.8,30.30,SE,133,0.0,-999.0,91,0.00,,,0.01,5,Wunderground v.1.15,2013-01-04 17:53:00,
2013-01-04 09:54:00,42.2,39.8,30.30,SE,132,0.0,-999.0,91,0.00,,,0.01,5,Wunderground v.1.15,2013-01-04 17:54:00,
2013-01-04 09:57:00,42.2,39.8,30.30,SE,133,0.0,-999.0,91,0.00,,,0.01,5,Wunderground v.1.15,2013-01-04 17:57:00,
2013-01-04 09:59:00,42.2,39.8,30.30,SE,133,0.0,-999.0,91,0.00,,,0.01,5,Wunderground v.1.15,2013-01-04 17:59:00,
2013-01-04 10:02:00,42.2,39.8,30.30,SE,135,0.0,-999.0,91,0.00,,,0.01,7,Wunderground v.1.15,2013-01-04 18:02:00,
2013-01-04 10:04:00,42.4,40.0,30.30,SE,135,1.0,-999.0,91,0.00,,,0.01,9,Wunderground v.1.15,2013-01-04 18:04:00,
2013-01-04 10:05:00,42.4,40.0,30.30,SE,136,1.0,-999.0,91,0.00,,,0.01,9,Wunderground v.1.15,2013-01-04 18:05:00,
2013-01-04 10:08:00,42.4,40.0,30.30,SE,135,0.0,-999.0,91,0.00,,,0.01,9,Wunderground v.1.15,2013-01-04 18:08:00,
2013-01-04 10:09:00,42.4,40.0,30.30,SE,135,0.0,-999.0,91,0.00,,,0.01,16,Wunderground v.1.15,2013-01-04 18:09:00,
2013-01-04 10:10:00,42.4,40.0,30.30,SE,135,0.0,-999.0,91,0.00,,,0.01,16,Wunderground v.1.15,2013-01-04 18:10:00,
2013-01-04 10:13:00,42.4,40.0,30.30,SE,136,0.0,-999.0,91,0.00,,,0.01,12,Wunderground v.1.15,2013-01-04 18:13:00,
2013-01-04 10:14:00,42.4,40.0,30.30,SE,135,0.0,-999.0,91,0.00,,,0.01,12,Wunderground v.1.15,2013-01-04 18:14:00,
2013-01-04 10:15:00,42.5,40.1,30.31,SE,135,0.0,-999.0,91,0.00,,,0.01,12,Wunderground v.1.15,2013-01-04 18:15:00,
2013-01-04 10:18:00,42.5,40.1,30.31,ESE,105,1.0,-999.0,91,0.00,,,0.01,18,Wunderground v.1.15,2013-01-04 18:18:00,
2013-01-04 10:19:00,42.5,40.1,30.31,ESE,115,1.0,-999.0,91,0.00,,,0.01,18,Wunderground v.1.15,2013-01-04 18:19:00,
2013-01-04 10:20:00,42.5,40.1,30.31,ESE,115,0.0,-999.0,91,0.00,,,0.01,18,Wunderground v.1.15,2013-01-04 18:20:00,
2013-01-04 10:23:00,42.5,40.1,30.31,ESE,115,0.0,-999.0,91,0.00,,,0.01,18,Wunderground v.1.15,2013-01-04 18:23:00,
2013-01-04 10:24:00,42.5,40.1,30.31,ESE,117,0.0,-999.0,91,0.00,,,0.01,19,Wunderground v.1.15,2013-01-04 18:24:00,
2013-01-04 10:25:00,42.5,40.1,30.31,ESE,121,0.0,-999.0,91,0.00,,,0.01,19,Wunderground v.1.15,2013-01-04 18:25:00,
2013-01-04 10:29:00,42.5,40.1,30.31,ESE,114,0.0,-999.0,91,0.00,,,0.01,14,Wunderground v.1.15,2013-01-04 18:29:00,
2013-01-04 10:30:00,42.5,40.1,30.31,ESE,114,0.0,-999.0,91,0.00,,,0.01,14,Wunderground v.1.15,2013-01-04 18:30:00,
2013-01-04 10:31:00,42.5,40.1,30.31,ESE,114,0.0,-999.0,91,0.00,,,0.01,14,Wunderground v.1.15,2013-01-04 18:31:00,
2013-01-04 10:34:00,42.7,40.3,30.31,ESE,114,0.0,-999.0,91,0.00,,,0.01,18,Wunderground v.1.15,2013-01-04 18:34:00,
2013-01-04 10:35:00,42.7,40.3,30.31,ESE,114,1.0,-999.0,91,0.00,,,0.01,18,Wunderground v.1.15,2013-01-04 18:35:00,
2013-01-04 10:37:00,42.7,40.3,30.31,SE,141,1.0,-999.0,91,0.00,,,0.01,18,Wunderground v.1.15,2013-01-04 18:37:00,
2013-01-04 10:39:00,42.7,40.3,30.31,SE,141,1.0,-999.0,91,0.00,,,0.01,18,Wunderground v.1.15,2013-01-04 18:39:00,
2013-01-04 10:40:00,42.7,40.3,30.31,SE,141,0.0,-999.0,91,0.00,,,0.01,18,Wunderground v.1.15,2013-01-04 18:40:00,
2013-01-04 10:42:00,42.7,40.3,30.31,SE,141,0.0,-999.0,91,0.00,,,0.01,14,Wunderground v.1.15,2013-01-04 18:42:00,
2013-01-04 10:44:00,42.7,40.3,30.31,SSE,149,1.0,-999.0,91,0.00,,,0.01,14,Wunderground v.1.15,2013-01-04 18:44:00,
2013-01-04 10:45:00,42.7,40.3,30.31,SE,133,3.0,-999.0,91,0.00,,,0.01,11,Wunderground v.1.15,2013-01-04 18:45:00,
2013-01-04 10:46:00,42.7,40.3,30.31,SE,143,1.0,-999.0,91,0.00,,,0.01,11,Wunderground v.1.15,2013-01-04 18:46:00,
2013-01-04 10:47:00,42.7,40.3,30.31,SE,143,0.0,-999.0,91,0.00,,,0.01,11,Wunderground v.1.15,2013-01-04 18:47:00,
2013-01-04 10:50:00,42.7,40.3,30.31,SE,143,0.0,-999.0,91,0.00,,,0.01,9,Wunderground v.1.15,2013-01-04 18:50:00,
2013-01-04 10:51:00,42.7,40.3,30.31,SE,143,0.0,-999.0,91,0.00,,,0.01,9,Wunderground v.1.15,2013-01-04 18:51:00,
2013-01-04 10:52:00,42.7,40.3,30.31,SE,143,0.0,-999.0,91,0.00,,,0.01,9,Wunderground v.1.15,2013-01-04 18:52:00,
2013-01-04 10:56:00,42.7,40.3,30.31,SSE,149,0.0,-999.0,91,0.00,,,0.01,12,Wunderground v.1.15,2013-01-04 18:56:00,
2013-01-04 10:58:00,42.7,40.3,30.31,SSE,156,1.0,-999.0,91,0.00,,,0.01,12,Wunderground v.1.15,2013-01-04 18:58:00,
2013-01-04 11:01:00,42.7,40.3,30.31,SE,124,1.0,-999.0,91,0.00,,,0.01,16,Wunderground v.1.15,2013-01-04 19:01:00,
2013-01-04 11:02:00,42.7,40.3,30.31,SE,124,1.0,-999.0,91,0.00,,,0.01,16,Wunderground v.1.15,2013-01-04 19:02:00,
2013-01-04 11:03:00,42.7,40.3,30.31,SE,124,0.0,-999.0,91,0.00,,,0.01,14,Wunderground v.1.15,2013-01-04 19:03:00,
2013-01-04 11:06:00,42.7,40.3,30.31,SE,124,0.0,-999.0,91,0.00,,,0.01,14,Wunderground v.1.15,2013-01-04 19:06:00,
2013-01-04 11:07:00,42.7,40.3,30.31,ESE,112,2.0,-999.0,91,0.00,,,0.01,14,Wunderground v.1.15,2013-01-04 19:07:00,
2013-01-04 11:08:00,42.7,40.3,30.31,ESE,112,1.0,-999.0,91,0.00,,,0.01,14,Wunderground v.1.15,2013-01-04 19:08:00,
2013-01-04 11:11:00,42.8,40.4,30.31,ESE,112,0.0,-999.0,91,0.00,,,0.01,12,Wunderground v.1.15,2013-01-04 19:11:00,
2013-01-04 11:12:00,42.8,40.4,30.31,ESE,112,0.0,-999.0,91,0.00,,,0.01,12,Wunderground v.1.15,2013-01-04 19:12:00,
2013-01-04 11:13:00,42.8,40.4,30.31,ESE,112,0.0,-999.0,91,0.00,,,0.01,12,Wunderground v.1.15,2013-01-04 19:13:00,
2013-01-04 11:16:00,42.8,40.4,30.31,SSW,196,0.0,-999.0,91,0.00,,,0.01,14,Wunderground v.1.15,2013-01-04 19:16:00,
2013-01-04 11:17:00,42.8,40.4,30.31,SSW,194,0.0,-999.0,91,0.00,,,0.01,14,Wunderground v.1.15,2013-01-04 19:17:00,
2013-01-04 11:18:00,42.8,40.4,30.31,SSW,196,0.0,-999.0,91,0.00,,,0.01,14,Wunderground v.1.15,2013-01-04 19:18:00,
2013-01-04 11:21:00,42.8,40.4,30.31,SSW,196,0.0,-999.0,91,0.00,,,0.01,11,Wunderground v.1.15,2013-01-04 19:21:00,
2013-01-04 11:22:00,42.8,40.4,30.31,SSW,196,2.0,-999.0,91,0.00,,,0.01,11,Wunderground v.1.15,2013-01-04 19:22:00,
2013-01-04 11:23:00,42.8,40.4,30.31,SSE,159,1.0,-999.0,91,0.00,,,0.01,12,Wunderground v.1.15,2013-01-04 19:23:00,
2013-01-04 11:26:00,42.8,40.4,30.31,SSE,159,0.0,-999.0,91,0.00,,,0.01,12,Wunderground v.1.15,2013-01-04 19:26:00,
2013-01-04 11:28:00,42.9,40.5,30.31,SSE,159,1.0,-999.0,91,0.00,,,0.01,12,Wunderground v.1.15,2013-01-04 19:28:00,
2013-01-04 11:29:00,42.9,40.5,30.31,SSE,159,0.0,-999.0,91,0.00,,,0.01,12,Wunderground v.1.15,2013-01-04 19:29:00,
2013-01-04 11:31:00,42.9,40.5,30.30,SSE,159,0.0,-999.0,91,0.00,,,0.01,12,Wunderground v.1.15,2013-01-04 19:31:00,
2013-01-04 11:33:00,42.9,40.5,30.30,South,180,1.0,-999.0,91,0.00,,,0.01,12,Wunderground v.1.15,2013-01-04 19:33:00,
2013-01-04 11:34:00,42.9,40.5,30.30,South,180,0.0,-999.0,91,0.00,,,0.01,12,Wunderground v.1.15,2013-01-04 19:34:00,
2013-01-04 11:35:00,42.9,40.5,30.30,South,180,0.0,-999.0,91,0.00,,,0.01,12,Wunderground v.1.15,2013-01-04 19:35:00,
2013-01-04 11:37:00,42.9,40.5,30.30,South,180,0.0,-999.0,91,0.00,,,0.01,14,Wunderground v.1.15,2013-01-04 19:37:00,
2013-01-04 11:38:00,42.9,40.5,30.30,South,176,3.0,-999.0,91,0.00,,,0.01,14,Wunderground v.1.15,2013-01-04 19:38:00,
2013-01-04 11:39:00,42.9,40.5,30.30,ESE,104,0.0,-999.0,91,0.00,,,0.01,14,Wunderground v.1.15,2013-01-04 19:39:00,
2013-01-04 11:40:00,42.9,40.5,30.30,ESE,104,0.0,-999.0,91,0.00,,,0.01,12,Wunderground v.1.15,2013-01-04 19:40:00,
2013-01-04 11:42:00,42.9,40.5,30.30,ESE,104,0.0,-999.0,91,0.00,,,0.01,12,Wunderground v.1.15,2013-01-04 19:42:00,
2013-01-04 11:43:00,42.9,40.5,30.30,ESE,104,0.0,-999.0,91,0.00,,,0.01,12,Wunderground v.1.15,2013-01-04 19:43:00,
2013-01-04 11:44:00,42.9,40.5,30.30,ESE,104,0.0,-999.0,91,0.00,,,0.01,14,Wunderground v.1.15,2013-01-04 19:44:00,
2013-01-04 11:45:00,42.9,40.5,30.30,ESE,108,1.0,-999.0,91,0.00,,,0.01,14,Wunderground v.1.15,2013-01-04 19:45:00,
2013-01-04 11:48:00,42.9,40.5,30.30,ESE,108,0.0,-999.0,91,0.00,,,0.01,12,Wunderground v.1.15,2013-01-04 19:48:00,
2013-01-04 11:49:00,42.9,40.5,30.30,ESE,108,0.0,-999.0,91,0.00,,,0.01,12,Wunderground v.1.15,2013-01-04 19:49:00,
2013-01-04 11:50:00,42.9,40.5,30.30,ESE,108,0.0,-999.0,91,0.00,,,0.01,12,Wunderground v.1.15,2013-01-04 19:50:00,
2013-01-04 11:53:00,42.9,40.5,30.30,ESE,108,0.0,-999.0,91,0.00,,,0.01,12,Wunderground v.1.15,2013-01-04 19:53:00,
2013-01-04 11:54:00,42.9,40.5,30.30,ESE,108,0.0,-999.0,91,0.00,,,0.01,12,Wunderground v.1.15,2013-01-04 19:54:00,
2013-01-04 11:55:00,42.9,40.5,30.30,ESE,108,0.0,-999.0,91,0.00,,,0.01,12,Wunderground v.1.15,2013-01-04 19:55:00,
2013-01-04 11:56:00,42.9,40.5,30.30,ESE,108,0.0,-999.0,91,0.00,,,0.01,12,Wunderground v.1.15,2013-01-04 19:56:00,
2013-01-04 11:58:00,42.9,40.5,30.30,ESE,108,0.0,-999.0,91,0.00,,,0.01,12,Wunderground v.1.15,2013-01-04 19:58:00,
2013-01-04 12:00:00,42.9,40.5,30.30,ESE,108,0.0,-999.0,91,0.00,,,0.01,12,Wunderground v.1.15,2013-01-04 20:00:00,
2013-01-04 12:01:00,42.9,40.5,30.30,ESE,108,0.0,-999.0,91,0.00,,,0.01,12,Wunderground v.1.15,2013-01-04 20:01:00,
2013-01-04 12:03:00,42.9,40.5,30.30,ESE,108,0.0,-999.0,91,0.00,,,0.01,12,Wunderground v.1.15,2013-01-04 20:03:00,
2013-01-04 12:05:00,42.9,40.5,30.30,ESE,108,0.0,-999.0,91,0.00,,,0.01,14,Wunderground v.1.15,2013-01-04 20:05:00,
2013-01-04 12:06:00,42.9,40.5,30.30,ESE,108,0.0,-999.0,91,0.00,,,0.01,14,Wunderground v.1.15,2013-01-04 20:06:00,
2013-01-04 12:09:00,42.9,40.5,30.30,ESE,108,0.0,-999.0,91,0.00,,,0.01,12,Wunderground v.1.15,2013-01-04 20:09:00,
2013-01-04 12:10:00,42.9,40.5,30.30,ESE,108,0.0,-999.0,91,0.00,,,0.01,12,Wunderground v.1.15,2013-01-04 20:10:00,
2013-01-04 12:11:00,42.9,40.5,30.30,ESE,108,0.0,-999.0,91,0.00,,,0.01,12,Wunderground v.1.15,2013-01-04 20:11:00,
2013-01-04 12:14:00,42.9,40.5,30.30,ESE,108,0.0,-999.0,91,0.00,,,0.01,12,Wunderground v.1.15,2013-01-04 20:14:00,
2013-01-04 12:16:00,43.1,40.7,30.30,ESE,108,0.0,-999.0,91,0.00,,,0.01,12,Wunderground v.1.15,2013-01-04 20:16:00,
2013-01-04 12:19:00,43.1,40.7,30.30,ESE,107,0.0,-999.0,91,0.00,,,0.01,19,Wunderground v.1.15,2013-01-04 20:19:00,
2013-01-04 12:21:00,43.1,40.7,30.30,ESE,108,0.0,-999.0,91,0.00,,,0.01,18,Wunderground v.1.15,2013-01-04 20:21:00,
2013-01-04 12:22:00,43.1,40.7,30.30,ESE,108,0.0,-999.0,91,0.00,,,0.01,18,Wunderground v.1.15,2013-01-04 20:22:00,
2013-01-04 12:25:00,43.2,40.8,30.30,ESE,108,0.0,-999.0,91,0.00,,,0.01,18,Wunderground v.1.15,2013-01-04 20:25:00,
2013-01-04 12:26:00,43.2,40.8,30.30,ESE,108,1.0,-999.0,91,0.00,,,0.01,14,Wunderground v.1.15,2013-01-04 20:26:00,
2013-01-04 12:27:00,43.2,40.8,30.30,ESE,108,0.0,-999.0,91,0.00,,,0.01,14,Wunderground v.1.15,2013-01-04 20:27:00,
2013-01-04 12:30:00,43.2,40.8,30.30,SE,125,2.0,-999.0,91,0.00,,,0.01,12,Wunderground v.1.15,2013-01-04 20:30:00,
2013-01-04 12:31:00,43.2,40.8,30.29,ESE,102,1.0,-999.0,91,0.00,,,0.01,12,Wunderground v.1.15,2013-01-04 20:31:00,
2013-01-04 12:32:00,43.2,40.8,30.29,ESE,102,0.0,-999.0,91,0.00,,,0.01,12,Wunderground v.1.15,2013-01-04 20:32:00,
2013-01-04 12:35:00,43.2,40.8,30.29,East,101,1.0,-999.0,91,0.00,,,0.01,12,Wunderground v.1.15,2013-01-04 20:35:00,
2013-01-04 12:36:00,43.2,40.8,30.29,East,101,0.0,-999.0,91,0.00,,,0.01,12,Wunderground v.1.15,2013-01-04 20:36:00,
2013-01-04 12:37:00,43.2,40.8,30.29,East,101,0.0,-999.0,91,0.00,,,0.01,12,Wunderground v.1.15,2013-01-04 20:37:00,
2013-01-04 12:38:00,43.2,40.8,30.29,East,101,0.0,-999.0,91,0.00,,,0.01,12,Wunderground v.1.15,2013-01-04 20:38:00,
2013-01-04 12:41:00,43.4,40.9,30.29,South,174,1.0,-999.0,91,0.00,,,0.01,12,Wunderground v.1.15,2013-01-04 20:41:00,
2013-01-04 12:42:00,43.4,40.9,30.29,South,174,0.0,-999.0,91,0.00,,,0.01,12,Wunderground v.1.15,2013-01-04 20:42:00,
2013-01-04 12:43:00,43.4,40.9,30.29,South,174,0.0,-999.0,91,0.00,,,0.01,12,Wunderground v.1.15,2013-01-04 20:43:00,
2013-01-04 12:46:00,43.4,40.9,30.29,South,174,0.0,-999.0,91,0.00,,,0.01,12,Wunderground v.1.15,2013-01-04 20:46:00,
2013-01-04 12:47:00,43.4,40.9,30.29,South,174,0.0,-999.0,91,0.00,,,0.01,12,Wunderground v.1.15,2013-01-04 20:47:00,
2013-01-04 12:48:00,43.4,40.9,30.29,South,174,0.0,-999.0,91,0.00,,,0.01,12,Wunderground v.1.15,2013-01-04 20:48:00,
2013-01-04 12:51:00,43.4,40.9,30.29,South,174,0.0,-999.0,91,0.00,,,0.01,23,Wunderground v.1.15,2013-01-04 20:51:00,
2013-01-04 12:52:00,43.4,40.9,30.29,South,174,0.0,-999.0,91,0.00,,,0.01,23,Wunderground v.1.15,2013-01-04 20:52:00,
2013-01-04 12:53:00,43.4,40.9,30.29,South,174,0.0,-999.0,91,0.00,,,0.01,23,Wunderground v.1.15,2013-01-04 20:53:00,
2013-01-04 12:57:00,43.4,40.9,30.29,South,174,0.0,-999.0,91,0.00,,,0.01,18,Wunderground v.1.15,2013-01-04 20:57:00,
2013-01-04 12:58:00,43.4,40.9,30.29,South,174,0.0,-999.0,91,0.00,,,0.01,18,Wunderground v.1.15,2013-01-04 20:58:00,
2013-01-04 13:02:00,43.4,40.9,30.29,South,174,0.0,-999.0,91,0.00,,,0.01,19,Wunderground v.1.15,2013-01-04 21:02:00,
2013-01-04 13:03:00,43.5,41.0,30.29,South,174,0.0,-999.0,91,0.00,,,0.01,16,Wunderground v.1.15,2013-01-04 21:03:00,
2013-01-04 13:05:00,43.5,41.0,30.29,South,174,0.0,-999.0,91,0.00,,,0.01,16,Wunderground v.1.15,2013-01-04 21:05:00,
2013-01-04 13:07:00,43.5,41.0,30.29,South,174,0.0,-999.0,91,0.00,,,0.01,16,Wunderground v.1.15,2013-01-04 21:07:00,
2013-01-04 13:08:00,43.5,41.0,30.29,South,174,0.0,-999.0,91,0.00,,,0.01,16,Wunderground v.1.15,2013-01-04 21:08:00,
2013-01-04 13:10:00,43.5,41.0,30.29,South,174,0.0,-999.0,91,0.00,,,0.01,16,Wunderground v.1.15,2013-01-04 21:10:00,
2013-01-04 13:12:00,43.7,41.2,30.29,SSE,149,0.0,-999.0,91,0.00,,,0.01,16,Wunderground v.1.15,2013-01-04 21:12:00,
2013-01-04 13:14:00,43.7,41.2,30.29,SSE,160,2.0,-999.0,91,0.00,,,0.01,16,Wunderground v.1.15,2013-01-04 21:14:00,
2013-01-04 13:15:00,43.7,41.2,30.28,SSE,160,0.0,-999.0,91,0.00,,,0.01,16,Wunderground v.1.15,2013-01-04 21:15:00,
2013-01-04 13:17:00,43.7,41.2,30.28,SSE,160,0.0,-999.0,91,0.00,,,0.01,18,Wunderground v.1.15,2013-01-04 21:17:00,
2013-01-04 13:19:00,43.7,41.2,30.28,SE,146,0.0,-999.0,91,0.00,,,0.01,18,Wunderground v.1.15,2013-01-04 21:19:00,
2013-01-04 13:20:00,43.7,41.2,30.28,SE,146,0.0,-999.0,91,0.00,,,0.01,19,Wunderground v.1.15,2013-01-04 21:20:00,
2013-01-04 13:22:00,43.7,41.2,30.28,SE,146,0.0,-999.0,91,0.00,,,0.01,19,Wunderground v.1.15,2013-01-04 21:22:00,
2013-01-04 13:24:00,43.8,41.3,30.28,SE,146,0.0,-999.0,91,0.00,,,0.01,19,Wunderground v.1.15,2013-01-04 21:24:00,
2013-01-04 13:25:00,43.8,41.3,30.28,SE,146,0.0,-999.0,91,0.00,,,0.01,19,Wunderground v.1.15,2013-01-04 21:25:00,
2013-01-04 13:27:00,43.8,41.3,30.28,SE,146,0.0,-999.0,91,0.00,,,0.01,19,Wunderground v.1.15,2013-01-04 21:27:00,
2013-01-04 13:28:00,43.8,41.3,30.28,SE,146,0.0,-999.0,91,0.00,,,0.01,21,Wunderground v.1.15,2013-01-04 21:28:00,
2013-01-04 13:29:00,43.8,41.3,30.28,SE,146,0.0,-999.0,91,0.00,,,0.01,21,Wunderground v.1.15,2013-01-04 21:29:00,
2013-01-04 13:30:00,43.8,41.3,30.28,SE,146,0.0,-999.0,91,0.00,,,0.01,21,Wunderground v.1.15,2013-01-04 21:30:00,
2013-01-04 13:32:00,43.8,41.3,30.28,SE,146,0.0,-999.0,91,0.00,,,0.01,16,Wunderground v.1.15,2013-01-04 21:32:00,
2013-01-04 13:33:00,43.8,41.3,30.28,SE,146,0.0,-999.0,91,0.00,,,0.01,16,Wunderground v.1.15,2013-01-04 21:33:00,
2013-01-04 13:34:00,43.8,41.3,30.28,SE,146,0.0,-999.0,91,0.00,,,0.01,16,Wunderground v.1.15,2013-01-04 21:34:00,
2013-01-04 13:36:00,43.8,41.3,30.28,SE,146,0.0,-999.0,91,0.00,,,0.01,16,Wunderground v.1.15,2013-01-04 21:36:00,
2013-01-04 13:38:00,43.8,41.3,30.28,SE,146,0.0,-999.0,91,0.00,,,0.01,12,Wunderground v.1.15,2013-01-04 21:38:00,
2013-01-04 13:40:00,43.8,41.3,30.28,SE,146,0.0,-999.0,91,0.00,,,0.01,12,Wunderground v.1.15,2013-01-04 21:40:00,
2013-01-04 13:41:00,43.8,41.3,30.28,SE,146,0.0,-999.0,91,0.00,,,0.01,14,Wunderground v.1.15,2013-01-04 21:41:00,
2013-01-04 13:43:00,43.8,-99.9,30.28,SE,146,0.0,-999.0,255,0.00,,,0.01,14,Wunderground v.1.15,2013-01-04 21:43:00,
2013-01-04 13:44:00,43.8,41.3,30.28,SE,146,0.0,-999.0,91,0.00,,,0.01,14,Wunderground v.1.15,2013-01-04 21:44:00,
2013-01-04 13:45:00,43.8,41.3,30.28,SE,146,0.0,-999.0,91,0.00,,,0.01,19,Wunderground v.1.15,2013-01-04 21:45:00,
2013-01-04 13:46:00,43.8,41.3,30.28,SE,146,0.0,-999.0,91,0.00,,,0.01,19,Wunderground v.1.15,2013-01-04 21:46:00,
2013-01-04 13:48:00,43.9,41.4,30.28,SE,146,0.0,-999.0,91,0.00,,,0.01,19,Wunderground v.1.15,2013-01-04 21:48:00,
2013-01-04 13:49:00,43.9,41.4,30.28,SE,146,0.0,-999.0,91,0.00,,,0.01,7,Wunderground v.1.15,2013-01-04 21:49:00,
2013-01-04 13:50:00,43.9,41.4,30.28,SE,146,0.0,-999.0,91,0.00,,,0.01,7,Wunderground v.1.15,2013-01-04 21:50:00,
2013-01-04 13:52:00,43.9,41.4,30.28,SE,146,0.0,-999.0,91,0.00,,,0.01,7,Wunderground v.1.15,2013-01-04 21:52:00,
2013-01-04 13:53:00,43.9,41.4,30.28,SE,146,0.0,-999.0,91,0.00,,,0.01,11,Wunderground v.1.15,2013-01-04 21:53:00,
2013-01-04 13:54:00,43.9,41.4,30.28,SE,146,0.0,-999.0,91,0.00,,,0.01,11,Wunderground v.1.15,2013-01-04 21:54:00,
2013-01-04 13:55:00,43.9,41.4,30.28,SE,146,0.0,-999.0,91,0.00,,,0.01,11,Wunderground v.1.15,2013-01-04 21:55:00,
2013-01-04 13:57:00,43.9,41.4,30.28,SE,146,0.0,-999.0,91,0.00,,,0.01,9,Wunderground v.1.15,2013-01-04 21:57:00,
2013-01-04 13:59:00,43.9,41.4,30.28,SE,146,0.0,-999.0,91,0.00,,,0.01,9,Wunderground v.1.15,2013-01-04 21:59:00,
2013-01-04 14:00:00,43.9,41.4,30.27,SE,146,0.0,-999.0,91,0.00,,,0.01,9,Wunderground v.1.15,2013-01-04 22:00:00,
2013-01-04 14:03:00,43.9,41.4,30.27,SE,146,0.0,-999.0,91,0.00,,,0.01,9,Wunderground v.1.15,2013-01-04 22:03:00,
2013-01-04 14:04:00,43.9,41.4,30.27,SE,146,0.0,-999.0,91,0.00,,,0.01,9,Wunderground v.1.15,2013-01-04 22:04:00,
2013-01-04 14:05:00,43.9,41.4,30.27,SE,146,0.0,-999.0,91,0.00,,,0.01,12,Wunderground v.1.15,2013-01-04 22:05:00,
2013-01-04 14:08:00,43.9,41.4,30.27,SE,146,0.0,-999.0,91,0.00,,,0.01,12,Wunderground v.1.15,2013-01-04 22:08:00,
2013-01-04 14:09:00,43.9,41.4,30.27,SE,146,0.0,-999.0,91,0.00,,,0.01,12,Wunderground v.1.15,2013-01-04 22:09:00,
2013-01-04 14:11:00,43.9,41.4,30.27,SE,146,1.0,-999.0,91,0.00,,,0.01,11,Wunderground v.1.15,2013-01-04 22:11:00,
2013-01-04 14:14:00,43.9,41.4,30.27,SE,146,0.0,-999.0,91,0.00,,,0.01,12,Wunderground v.1.15,2013-01-04 22:14:00,
2013-01-04 14:16:00,43.9,41.4,30.27,SE,146,0.0,-999.0,91,0.00,,,0.01,12,Wunderground v.1.15,2013-01-04 22:16:00,
2013-01-04 14:19:00,43.9,41.4,30.27,SE,146,0.0,-999.0,91,0.00,,,0.01,21,Wunderground v.1.15,2013-01-04 22:19:00,
2013-01-04 14:20:00,43.9,41.4,30.27,SE,146,0.0,-999.0,91,0.00,,,0.01,21,Wunderground v.1.15,2013-01-04 22:20:00,
2013-01-04 14:21:00,43.9,41.4,30.27,SE,146,0.0,-999.0,91,0.00,,,0.01,21,Wunderground v.1.15,2013-01-04 22:21:00,
2013-01-04 14:24:00,43.9,41.4,30.27,SE,146,0.0,-999.0,91,0.00,,,0.01,19,Wunderground v.1.15,2013-01-04 22:24:00,
2013-01-04 14:25:00,43.9,41.4,30.27,SE,146,0.0,-999.0,91,0.00,,,0.01,19,Wunderground v.1.15,2013-01-04 22:25:00,
2013-01-04 14:26:00,43.9,41.4,30.27,SE,143,0.0,-999.0,91,0.00,,,0.01,12,Wunderground v.1.15,2013-01-04 22:26:00,
2013-01-04 14:29:00,43.9,41.4,30.27,SE,146,0.0,-999.0,91,0.00,,,0.01,12,Wunderground v.1.15,2013-01-04 22:29:00,
2013-01-04 14:30:00,43.9,41.4,30.27,SE,146,0.0,-999.0,91,0.00,,,0.01,12,Wunderground v.1.15,2013-01-04 22:30:00,
2013-01-04 14:31:00,43.9,41.4,30.27,SE,146,0.0,-999.0,91,0.00,,,0.01,9,Wunderground v.1.15,2013-01-04 22:31:00,
2013-01-04 14:34:00,43.9,41.4,30.27,SE,146,0.0,-999.0,91,0.00,,,0.01,9,Wunderground v.1.15,2013-01-04 22:34:00,
2013-01-04 14:35:00,43.9,41.4,30.27,SE,146,0.0,-999.0,91,0.00,,,0.01,9,Wunderground v.1.15,2013-01-04 22:35:00,
2013-01-04 14:36:00,43.9,41.4,30.27,SE,146,0.0,-999.0,91,0.00,,,0.01,9,Wunderground v.1.15,2013-01-04 22:36:00,
2013-01-04 14:40:00,44.1,41.6,30.27,SE,146,0.0,-999.0,91,0.00,,,0.01,7,Wunderground v.1.15,2013-01-04 22:40:00,
2013-01-04 14:41:00,44.1,41.6,30.27,SE,146,0.0,-999.0,91,0.00,,,0.01,7,Wunderground v.1.15,2013-01-04 22:41:00,
2013-01-04 14:45:00,44.1,41.6,30.27,SE,146,0.0,-999.0,91,0.00,,,0.01,5,Wunderground v.1.15,2013-01-04 22:45:00,
2013-01-04 14:46:00,44.1,41.6,30.27,SE,146,0.0,-999.0,91,0.00,,,0.01,5,Wunderground v.1.15,2013-01-04 22:46:00,
2013-01-04 14:47:00,44.1,41.6,30.27,SE,146,0.0,-999.0,91,0.00,,,0.01,0,Wunderground v.1.15,2013-01-04 22:47:00,
2013-01-04 14:50:00,44.1,41.6,30.27,SE,146,0.0,-999.0,91,0.00,,,0.01,0,Wunderground v.1.15,2013-01-04 22:50:00,
2013-01-04 14:51:00,44.1,41.6,30.27,SE,146,0.0,-999.0,91,0.00,,,0.01,0,Wunderground v.1.15,2013-01-04 22:51:00,
2013-01-04 14:52:00,44.1,41.6,30.27,SE,146,0.0,-999.0,91,0.00,,,0.01,0,Wunderground v.1.15,2013-01-04 22:52:00,
2013-01-04 14:55:00,44.1,41.6,30.27,SE,146,0.0,-999.0,91,0.00,,,0.01,5,Wunderground v.1.15,2013-01-04 22:55:00,
2013-01-04 14:56:00,44.1,41.6,30.27,SE,146,0.0,-999.0,91,0.00,,,0.01,5,Wunderground v.1.15,2013-01-04 22:56:00,
2013-01-04 14:57:00,44.1,41.6,30.27,SE,146,0.0,-999.0,91,0.00,,,0.01,5,Wunderground v.1.15,2013-01-04 22:57:00,
2013-01-04 15:01:00,44.1,41.6,30.27,SE,146,0.0,-999.0,91,0.00,,,0.01,7,Wunderground v.1.15,2013-01-04 23:01:00,
2013-01-04 15:02:00,44.1,41.6,30.27,SE,146,0.0,-999.0,91,0.00,,,0.01,7,Wunderground v.1.15,2013-01-04 23:02:00,
2013-01-04 15:06:00,43.9,41.4,30.27,SE,146,0.0,-999.0,91,0.00,,,0.01,0,Wunderground v.1.15,2013-01-04 23:06:00,
2013-01-04 15:08:00,43.9,41.4,30.27,SE,146,0.0,-999.0,91,0.00,,,0.01,0,Wunderground v.1.15,2013-01-04 23:08:00,
2013-01-04 15:11:00,43.9,41.4,30.27,SE,146,0.0,-999.0,91,0.00,,,0.01,0,Wunderground v.1.15,2013-01-04 23:11:00,
2013-01-04 15:12:00,43.9,41.4,30.27,SE,146,0.0,-999.0,91,0.00,,,0.01,0,Wunderground v.1.15,2013-01-04 23:12:00,
2013-01-04 15:13:00,43.9,41.4,30.27,SE,146,0.0,-999.0,91,0.00,,,0.01,0,Wunderground v.1.15,2013-01-04 23:13:00,
2013-01-04 15:16:00,43.9,41.4,30.26,SE,146,0.0,-999.0,91,0.00,,,0.01,0,Wunderground v.1.15,2013-01-04 23:16:00,
2013-01-04 15:17:00,43.9,41.4,30.26,SE,146,0.0,-999.0,91,0.00,,,0.01,0,Wunderground v.1.15,2013-01-04 23:17:00,
2013-01-04 15:18:00,43.9,41.4,30.26,SE,146,0.0,-999.0,91,0.00,,,0.01,0,Wunderground v.1.15,2013-01-04 23:18:00,
2013-01-04 15:21:00,44.1,41.6,30.26,SE,146,0.0,-999.0,91,0.00,,,0.01,0,Wunderground v.1.15,2013-01-04 23:21:00,
2013-01-04 15:22:00,44.1,41.6,30.26,SE,146,0.0,-999.0,91,0.00,,,0.01,0,Wunderground v.1.15,2013-01-04 23:22:00,
2013-01-04 15:24:00,44.1,41.6,30.26,SE,146,0.0,-999.0,91,0.00,,,0.01,0,Wunderground v.1.15,2013-01-04 23:24:00,
2013-01-04 15:26:00,44.1,41.6,30.26,SE,146,0.0,-999.0,91,0.00,,,0.01,7,Wunderground v.1.15,2013-01-04 23:26:00,
2013-01-04 15:27:00,44.1,41.6,30.26,SE,146,0.0,-999.0,91,0.00,,,0.01,7,Wunderground v.1.15,2013-01-04 23:27:00,
2013-01-04 15:29:00,44.1,41.6,30.26,SE,146,0.0,-999.0,91,0.00,,,0.01,9,Wunderground v.1.15,2013-01-04 23:29:00,
2013-01-04 15:31:00,44.1,41.6,30.26,SE,146,0.0,-999.0,91,0.00,,,0.01,9,Wunderground v.1.15,2013-01-04 23:31:00,
2013-01-04 15:32:00,43.9,41.4,30.26,SE,146,0.0,-999.0,91,0.00,,,0.01,9,Wunderground v.1.15,2013-01-04 23:32:00,
2013-01-04 15:35:00,43.9,41.4,30.26,SE,146,0.0,-999.0,91,0.00,,,0.01,9,Wunderground v.1.15,2013-01-04 23:35:00,
2013-01-04 15:36:00,43.9,41.4,30.26,SE,146,0.0,-999.0,91,0.00,,,0.01,9,Wunderground v.1.15,2013-01-04 23:36:00,
2013-01-04 15:37:00,43.9,41.4,30.26,SE,146,0.0,-999.0,91,0.00,,,0.01,5,Wunderground v.1.15,2013-01-04 23:37:00,
2013-01-04 15:40:00,43.9,41.4,30.26,SE,146,0.0,-999.0,91,0.00,,,0.01,5,Wunderground v.1.15,2013-01-04 23:40:00,
2013-01-04 15:42:00,43.9,41.4,30.26,SE,146,0.0,-999.0,91,0.00,,,0.01,7,Wunderground v.1.15,2013-01-04 23:42:00,
2013-01-04 15:45:00,43.9,41.4,30.26,SE,143,0.0,-999.0,91,0.00,,,0.01,7,Wunderground v.1.15,2013-01-04 23:45:00,
2013-01-04 15:47:00,43.9,41.4,30.26,SE,146,0.0,-999.0,91,0.00,,,0.01,7,Wunderground v.1.15,2013-01-04 23:47:00,
2013-01-04 15:48:00,43.9,41.4,30.26,SE,146,0.0,-999.0,91,0.00,,,0.01,7,Wunderground v.1.15,2013-01-04 23:48:00,
2013-01-04 15:51:00,43.9,41.4,30.26,SE,146,0.0,-999.0,91,0.00,,,0.01,9,Wunderground v.1.15,2013-01-04 23:51:00,
2013-01-04 15:52:00,43.9,41.4,30.26,SE,146,0.0,-999.0,91,0.00,,,0.01,9,Wunderground v.1.15,2013-01-04 23:52:00,
2013-01-04 15:53:00,43.9,41.4,30.26,SE,146,0.0,-999.0,91,0.00,,,0.01,9,Wunderground v.1.15,2013-01-04 23:53:00,
2013-01-04 15:56:00,43.9,41.4,30.26,SE,146,0.0,-999.0,91,0.00,,,0.01,9,Wunderground v.1.15,2013-01-04 23:56:00,
2013-01-04 15:57:00,43.9,41.4,30.26,SE,146,0.0,-999.0,91,0.00,,,0.01,9,Wunderground v.1.15,2013-01-04 23:57:00,
2013-01-04 15:58:00,43.9,41.4,30.26,SE,146,0.0,-999.0,91,0.00,,,0.01,7,Wunderground v.1.15,2013-01-04 23:58:00,
2013-01-04 16:01:00,43.9,41.4,30.27,SE,146,0.0,-999.0,91,0.00,,,0.01,7,Wunderground v.1.15,2013-01-05 00:01:00,
2013-01-04 16:02:00,43.9,41.4,30.27,SE,146,0.0,-999.0,91,0.00,,,0.01,0,Wunderground v.1.15,2013-01-05 00:02:00,
2013-01-04 16:04:00,43.9,41.4,30.27,SE,146,0.0,-999.0,91,0.00,,,0.01,0,Wunderground v.1.15,2013-01-05 00:04:00,
2013-01-04 16:07:00,43.9,41.4,30.27,SE,146,0.0,-999.0,91,0.00,,,0.01,0,Wunderground v.1.15,2013-01-05 00:07:00,
2013-01-04 16:08:00,43.9,41.4,30.27,SE,146,0.0,-999.0,91,0.00,,,0.01,0,Wunderground v.1.15,2013-01-05 00:08:00,
2013-01-04 16:09:00,43.9,41.4,30.27,SE,146,0.0,-999.0,91,0.00,,,0.01,0,Wunderground v.1.15,2013-01-05 00:09:00,
2013-01-04 16:10:00,43.9,41.4,30.27,SE,146,0.0,-999.0,91,0.00,,,0.01,0,Wunderground v.1.15,2013-01-05 00:10:00,
2013-01-04 16:12:00,43.9,41.4,30.27,SE,146,0.0,-999.0,91,0.00,,,0.01,0,Wunderground v.1.15,2013-01-05 00:12:00,
2013-01-04 16:13:00,43.9,41.4,30.27,SE,146,0.0,-999.0,91,0.00,,,0.01,0,Wunderground v.1.15,2013-01-05 00:13:00,
2013-01-04 16:14:00,43.9,41.4,30.27,SE,146,0.0,-999.0,91,0.00,,,0.01,0,Wunderground v.1.15,2013-01-05 00:14:00,
2013-01-04 16:15:00,43.9,41.4,30.27,SE,146,0.0,-999.0,91,0.00,,,0.01,0,Wunderground v.1.15,2013-01-05 00:15:00,
2013-01-04 16:17:00,43.9,41.4,30.27,SE,146,0.0,-999.0,91,0.00,,,0.01,0,Wunderground v.1.15,2013-01-05 00:17:00,
2013-01-04 16:18:00,43.9,41.4,30.27,SE,146,0.0,-999.0,91,0.00,,,0.01,0,Wunderground v.1.15,2013-01-05 00:18:00,
2013-01-04 16:20:00,43.9,41.4,30.27,SE,146,0.0,-999.0,91,0.00,,,0.01,0,Wunderground v.1.15,2013-01-05 00:20:00,
2013-01-04 16:23:00,43.9,41.4,30.27,SE,146,0.0,-999.0,91,0.00,,,0.01,0,Wunderground v.1.15,2013-01-05 00:23:00,
2013-01-04 16:25:00,43.9,41.4,30.27,SE,146,0.0,-999.0,91,0.00,,,0.01,0,Wunderground v.1.15,2013-01-05 00:25:00,
2013-01-04 16:28:00,43.9,41.4,30.27,SE,146,0.0,-999.0,91,0.00,,,0.01,0,Wunderground v.1.15,2013-01-05 00:28:00,
2013-01-04 16:29:00,43.9,41.4,30.27,SE,146,0.0,-999.0,91,0.00,,,0.01,0,Wunderground v.1.15,2013-01-05 00:29:00,
2013-01-04 16:31:00,43.9,41.4,30.27,SE,146,0.0,-999.0,91,0.00,,,0.01,0,Wunderground v.1.15,2013-01-05 00:31:00,
2013-01-04 16:33:00,43.9,41.4,30.27,SE,146,0.0,-999.0,91,0.00,,,0.01,0,Wunderground v.1.15,2013-01-05 00:33:00,
2013-01-04 16:34:00,43.8,41.3,30.27,SE,146,0.0,-999.0,91,0.00,,,0.01,0,Wunderground v.1.15,2013-01-05 00:34:00,
2013-01-04 16:36:00,43.8,41.3,30.27,SE,146,0.0,-999.0,91,0.00,,,0.01,0,Wunderground v.1.15,2013-01-05 00:36:00,
2013-01-04 16:39:00,43.8,41.3,30.27,SE,146,0.0,-999.0,91,0.00,,,0.01,0,Wunderground v.1.15,2013-01-05 00:39:00,
2013-01-04 16:41:00,43.7,41.2,30.27,SE,146,0.0,-999.0,91,0.00,,,0.01,0,Wunderground v.1.15,2013-01-05 00:41:00,
2013-01-04 16:44:00,43.7,41.2,30.27,SE,146,0.0,-999.0,91,0.00,,,0.01,0,Wunderground v.1.15,2013-01-05 00:44:00,
2013-01-04 16:46:00,43.7,41.2,30.27,SE,146,0.0,-999.0,91,0.00,,,0.01,0,Wunderground v.1.15,2013-01-05 00:46:00,
2013-01-04 16:47:00,43.7,41.2,30.27,SE,146,0.0,-999.0,91,0.00,,,0.01,0,Wunderground v.1.15,2013-01-05 00:47:00,
2013-01-04 16:49:00,43.7,41.2,30.27,SE,146,0.0,-999.0,91,0.00,,,0.01,0,Wunderground v.1.15,2013-01-05 00:49:00,
2013-01-04 16:51:00,43.7,41.2,30.27,SE,146,0.0,-999.0,91,0.00,,,0.01,0,Wunderground v.1.15,2013-01-05 00:51:00,
2013-01-04 16:52:00,43.7,41.2,30.27,SE,146,0.0,-999.0,91,0.00,,,0.01,0,Wunderground v.1.15,2013-01-05 00:52:00,
2013-01-04 16:54:00,43.7,41.2,30.27,SE,146,0.0,-999.0,91,0.00,,,0.01,0,Wunderground v.1.15,2013-01-05 00:54:00,
2013-01-04 16:55:00,43.7,41.2,30.27,SE,146,0.0,-999.0,91,0.00,,,0.01,0,Wunderground v.1.15,2013-01-05 00:55:00,
2013-01-04 16:57:00,43.5,41.0,30.27,SE,146,0.0,-999.0,91,0.00,,,0.01,0,Wunderground v.1.15,2013-01-05 00:57:00,
2013-01-04 17:00:00,43.5,41.0,30.27,SE,146,0.0,-999.0,91,0.00,,,0.01,0,Wunderground v.1.15,2013-01-05 01:00:00,
2013-01-04 17:02:00,43.5,41.0,30.26,SE,146,0.0,-999.0,91,0.00,,,0.01,0,Wunderground v.1.15,2013-01-05 01:02:00,
2013-01-04 17:03:00,43.5,41.0,30.26,SE,146,0.0,-999.0,91,0.00,,,0.01,0,Wunderground v.1.15,2013-01-05 01:03:00,
2013-01-04 17:05:00,43.4,40.9,30.26,SE,146,0.0,-999.0,91,0.00,,,0.01,0,Wunderground v.1.15,2013-01-05 01:05:00,
2013-01-04 17:06:00,43.4,40.9,30.26,SE,146,0.0,-999.0,91,0.00,,,0.01,0,Wunderground v.1.15,2013-01-05 01:06:00,
2013-01-04 17:07:00,43.4,40.9,30.26,SE,146,0.0,-999.0,91,0.00,,,0.01,0,Wunderground v.1.15,2013-01-05 01:07:00,
2013-01-04 17:08:00,43.4,40.9,30.26,SE,146,0.0,-999.0,91,0.00,,,0.01,0,Wunderground v.1.15,2013-01-05 01:08:00,
2013-01-04 17:10:00,43.4,40.9,30.26,SE,146,0.0,-999.0,91,0.00,,,0.01,0,Wunderground v.1.15,2013-01-05 01:10:00,
2013-01-04 17:11:00,43.4,40.9,30.26,SE,146,0.0,-999.0,91,0.00,,,0.01,0,Wunderground v.1.15,2013-01-05 01:11:00,
2013-01-04 17:13:00,43.4,40.9,30.26,SE,146,0.0,-999.0,91,0.00,,,0.01,0,Wunderground v.1.15,2013-01-05 01:13:00,
2013-01-04 17:16:00,43.4,40.9,30.25,SE,146,0.0,-999.0,91,0.00,,,0.01,0,Wunderground v.1.15,2013-01-05 01:16:00,
2013-01-04 17:18:00,43.2,40.8,30.25,SE,146,0.0,-999.0,91,0.00,,,0.01,0,Wunderground v.1.15,2013-01-05 01:18:00,
2013-01-04 17:19:00,43.2,40.8,30.25,SE,146,0.0,-999.0,91,0.00,,,0.01,0,Wunderground v.1.15,2013-01-05 01:19:00,
2013-01-04 17:21:00,43.2,40.8,30.25,SE,146,0.0,-999.0,91,0.00,,,0.01,0,Wunderground v.1.15,2013-01-05 01:21:00,
2013-01-04 17:23:00,43.2,40.8,30.25,SE,146,0.0,-999.0,91,0.00,,,0.01,0,Wunderground v.1.15,2013-01-05 01:23:00,
2013-01-04 17:24:00,43.2,40.8,30.25,SE,146,0.0,-999.0,91,0.00,,,0.01,0,Wunderground v.1.15,2013-01-05 01:24:00,
2013-01-04 17:26:00,43.1,40.7,30.25,SE,146,0.0,-999.0,91,0.00,,,0.01,0,Wunderground v.1.15,2013-01-05 01:26:00,
2013-01-04 17:29:00,43.1,40.7,30.25,SE,146,0.0,-999.0,91,0.00,,,0.01,0,Wunderground v.1.15,2013-01-05 01:29:00,
2013-01-04 17:31:00,42.9,40.5,30.25,SE,146,0.0,-999.0,91,0.00,,,0.01,0,Wunderground v.1.15,2013-01-05 01:31:00,
2013-01-04 17:32:00,42.9,40.5,30.25,SE,146,0.0,-999.0,91,0.00,,,0.01,0,Wunderground v.1.15,2013-01-05 01:32:00,
2013-01-04 17:34:00,42.9,40.5,30.25,SE,146,0.0,-999.0,91,0.00,,,0.01,0,Wunderground v.1.15,2013-01-05 01:34:00,
2013-01-04 17:36:00,42.8,40.4,30.25,SE,146,0.0,-999.0,91,0.00,,,0.01,0,Wunderground v.1.15,2013-01-05 01:36:00,
2013-01-04 17:37:00,42.8,40.4,30.25,SE,146,0.0,-999.0,91,0.00,,,0.01,0,Wunderground v.1.15,2013-01-05 01:37:00,
2013-01-04 17:39:00,42.8,40.4,30.25,SE,146,0.0,-999.0,91,0.00,,,0.01,0,Wunderground v.1.15,2013-01-05 01:39:00,
2013-01-04 17:40:00,42.8,40.4,30.25,SE,146,0.0,-999.0,91,0.00,,,0.01,0,Wunderground v.1.15,2013-01-05 01:40:00,
2013-01-04 17:41:00,42.7,40.3,30.25,SE,146,0.0,-999.0,91,0.00,,,0.01,0,Wunderground v.1.15,2013-01-05 01:41:00,
2013-01-04 17:42:00,42.7,40.3,30.25,SE,146,0.0,-999.0,91,0.00,,,0.01,0,Wunderground v.1.15,2013-01-05 01:42:00,
2013-01-04 17:44:00,42.5,40.1,30.25,SE,146,0.0,-999.0,91,0.00,,,0.01,0,Wunderground v.1.15,2013-01-05 01:44:00,
2013-01-04 17:45:00,42.5,40.1,30.25,SE,146,0.0,-999.0,91,0.00,,,0.01,0,Wunderground v.1.15,2013-01-05 01:45:00,
2013-01-04 17:46:00,42.4,40.0,30.24,SE,146,0.0,-999.0,91,0.00,,,0.01,0,Wunderground v.1.15,2013-01-05 01:46:00,
2013-01-04 17:47:00,42.4,40.0,30.24,SE,146,0.0,-999.0,91,0.00,,,0.01,0,Wunderground v.1.15,2013-01-05 01:47:00,
2013-01-04 17:50:00,42.2,39.8,30.24,SE,146,0.0,-999.0,91,0.00,,,0.01,0,Wunderground v.1.15,2013-01-05 01:50:00,
2013-01-04 17:51:00,42.1,39.7,30.24,SE,146,0.0,-999.0,91,0.00,,,0.01,0,Wunderground v.1.15,2013-01-05 01:51:00,
2013-01-04 17:52:00,42.1,39.7,30.24,SE,146,0.0,-999.0,91,0.00,,,0.01,0,Wunderground v.1.15,2013-01-05 01:52:00,
2013-01-04 17:55:00,42.1,39.7,30.24,SE,146,0.0,-999.0,91,0.00,,,0.01,0,Wunderground v.1.15,2013-01-05 01:55:00,
2013-01-04 17:56:00,41.9,39.5,30.24,SE,146,0.0,-999.0,91,0.00,,,0.01,0,Wunderground v.1.15,2013-01-05 01:56:00,
2013-01-04 17:57:00,41.9,39.5,30.24,SE,146,0.0,-999.0,91,0.00,,,0.01,0,Wunderground v.1.15,2013-01-05 01:57:00,
2013-01-04 18:00:00,41.8,39.4,30.23,SE,146,0.0,-999.0,91,0.00,,,0.01,0,Wunderground v.1.15,2013-01-05 02:00:00,
2013-01-04 18:02:00,41.8,39.4,30.23,SE,146,0.0,-999.0,91,0.00,,,0.01,0,Wunderground v.1.15,2013-01-05 02:02:00,
2013-01-04 18:05:00,41.7,39.3,30.23,SE,146,0.0,-999.0,91,0.00,,,0.01,0,Wunderground v.1.15,2013-01-05 02:05:00,
2013-01-04 18:07:00,41.7,39.3,30.23,SE,146,0.0,-999.0,91,0.00,,,0.01,0,Wunderground v.1.15,2013-01-05 02:07:00,
2013-01-04 18:11:00,41.5,39.1,30.23,SE,146,0.0,-999.0,91,0.00,,,0.01,0,Wunderground v.1.15,2013-01-05 02:11:00,
2013-01-04 18:12:00,41.5,39.1,30.23,SE,146,0.0,-999.0,91,0.00,,,0.01,0,Wunderground v.1.15,2013-01-05 02:12:00,
2013-01-04 18:13:00,41.5,39.1,30.23,SE,146,0.0,-999.0,91,0.00,,,0.01,0,Wunderground v.1.15,2013-01-05 02:13:00,
2013-01-04 18:16:00,41.5,39.1,30.22,SE,146,0.0,-999.0,91,0.00,,,0.01,0,Wunderground v.1.15,2013-01-05 02:16:00,
2013-01-04 18:17:00,41.5,39.1,30.22,SE,146,0.0,-999.0,91,0.00,,,0.01,0,Wunderground v.1.15,2013-01-05 02:17:00,
2013-01-04 18:18:00,41.5,39.1,30.22,SE,146,0.0,-999.0,91,0.00,,,0.01,0,Wunderground v.1.15,2013-01-05 02:18:00,
2013-01-04 18:21:00,41.5,39.1,30.22,SE,146,0.0,-999.0,91,0.00,,,0.01,0,Wunderground v.1.15,2013-01-05 02:21:00,
2013-01-04 18:22:00,41.4,39.0,30.22,SE,146,0.0,-999.0,91,0.00,,,0.01,0,Wunderground v.1.15,2013-01-05 02:22:00,
2013-01-04 18:23:00,41.4,39.0,30.22,SE,146,0.0,-999.0,91,0.00,,,0.01,0,Wunderground v.1.15,2013-01-05 02:23:00,
2013-01-04 18:26:00,41.4,39.0,30.22,SE,146,0.0,-999.0,91,0.00,,,0.01,0,Wunderground v.1.15,2013-01-05 02:26:00,
2013-01-04 18:27:00,41.4,39.0,30.22,SE,146,0.0,-999.0,91,0.00,,,0.01,0,Wunderground v.1.15,2013-01-05 02:27:00,
2013-01-04 18:28:00,41.4,39.0,30.22,SE,146,0.0,-999.0,91,0.00,,,0.01,0,Wunderground v.1.15,2013-01-05 02:28:00,
2013-01-04 18:31:00,41.4,39.0,30.22,SE,146,0.0,-999.0,91,0.00,,,0.01,0,Wunderground v.1.15,2013-01-05 02:31:00,
2013-01-04 18:32:00,41.4,39.0,30.22,SE,146,0.0,-999.0,91,0.00,,,0.01,0,Wunderground v.1.15,2013-01-05 02:32:00,
2013-01-04 18:33:00,41.4,39.0,30.22,SE,146,0.0,-999.0,91,0.00,,,0.01,0,Wunderground v.1.15,2013-01-05 02:33:00,
2013-01-04 18:36:00,41.4,39.0,30.22,SE,146,0.0,-999.0,91,0.00,,,0.01,0,Wunderground v.1.15,2013-01-05 02:36:00,
2013-01-04 18:37:00,41.4,39.0,30.22,SE,146,0.0,-999.0,91,0.00,,,0.01,0,Wunderground v.1.15,2013-01-05 02:37:00,
2013-01-04 18:38:00,41.4,39.0,30.22,SE,146,0.0,-999.0,91,0.00,,,0.01,0,Wunderground v.1.15,2013-01-05 02:38:00,
2013-01-04 18:39:00,41.2,38.8,30.22,SE,146,0.0,-999.0,91,0.00,,,0.01,0,Wunderground v.1.15,2013-01-05 02:39:00,
2013-01-04 18:41:00,41.2,38.8,30.22,SE,146,0.0,-999.0,91,0.00,,,0.01,0,Wunderground v.1.15,2013-01-05 02:41:00,
2013-01-04 18:42:00,41.2,38.8,30.22,SE,146,0.0,-999.0,91,0.00,,,0.01,0,Wunderground v.1.15,2013-01-05 02:42:00,
2013-01-04 18:43:00,41.2,38.8,30.22,SE,146,0.0,-999.0,91,0.00,,,0.01,0,Wunderground v.1.15,2013-01-05 02:43:00,
2013-01-04 18:44:00,41.2,38.8,30.22,SE,146,0.0,-999.0,91,0.00,,,0.01,0,Wunderground v.1.15,2013-01-05 02:44:00,
2013-01-04 18:46:00,41.2,38.8,30.22,SE,146,0.0,-999.0,91,0.00,,,0.01,0,Wunderground v.1.15,2013-01-05 02:46:00,
2013-01-04 18:48:00,41.2,38.8,30.22,SE,146,0.0,-999.0,91,0.00,,,0.01,0,Wunderground v.1.15,2013-01-05 02:48:00,
2013-01-04 18:49:00,41.2,38.8,30.22,SE,146,0.0,-999.0,91,0.00,,,0.01,0,Wunderground v.1.15,2013-01-05 02:49:00,
2013-01-04 18:51:00,41.2,38.8,30.22,SE,146,0.0,-999.0,91,0.00,,,0.01,0,Wunderground v.1.15,2013-01-05 02:51:00,
2013-01-04 18:53:00,41.2,38.8,30.22,SE,146,0.0,-999.0,91,0.00,,,0.01,0,Wunderground v.1.15,2013-01-05 02:53:00,
2013-01-04 18:54:00,41.2,38.8,30.22,SE,146,0.0,-999.0,91,0.00,,,0.01,0,Wunderground v.1.15,2013-01-05 02:54:00,
2013-01-04 18:57:00,41.1,38.7,30.22,SE,146,0.0,-999.0,91,0.00,,,0.01,0,Wunderground v.1.15,2013-01-05 02:57:00,
2013-01-04 18:58:00,41.1,38.7,30.22,SE,146,0.0,-999.0,91,0.00,,,0.01,0,Wunderground v.1.15,2013-01-05 02:58:00,
2013-01-04 18:59:00,41.1,38.7,30.22,SE,146,0.0,-999.0,91,0.00,,,0.01,0,Wunderground v.1.15,2013-01-05 02:59:00,
2013-01-04 19:00:00,41.1,38.7,30.22,SE,146,0.0,-999.0,91,0.00,,,0.01,0,Wunderground v.1.15,2013-01-05 03:00:00,
2013-01-04 19:02:00,41.1,38.7,30.22,SE,146,0.0,-999.0,91,0.00,,,0.01,0,Wunderground v.1.15,2013-01-05 03:02:00,
2013-01-04 19:04:00,41.1,38.7,30.22,SE,146,0.0,-999.0,91,0.00,,,0.01,0,Wunderground v.1.15,2013-01-05 03:04:00,
2013-01-04 19:05:00,40.9,38.5,30.22,SE,146,0.0,-999.0,91,0.00,,,0.01,0,Wunderground v.1.15,2013-01-05 03:05:00,
2013-01-04 19:07:00,40.9,38.5,30.22,SE,146,0.0,-999.0,91,0.00,,,0.01,0,Wunderground v.1.15,2013-01-05 03:07:00,
2013-01-04 19:09:00,40.9,38.5,30.22,SE,146,0.0,-999.0,91,0.00,,,0.01,0,Wunderground v.1.15,2013-01-05 03:09:00,
2013-01-04 19:10:00,40.8,38.4,30.22,SE,146,0.0,-999.0,91,0.00,,,0.01,0,Wunderground v.1.15,2013-01-05 03:10:00,
2013-01-04 19:12:00,40.8,38.4,30.22,SE,146,0.0,-999.0,91,0.00,,,0.01,0,Wunderground v.1.15,2013-01-05 03:12:00,
2013-01-04 19:14:00,40.7,38.3,30.22,SE,146,0.0,-999.0,91,0.00,,,0.01,0,Wunderground v.1.15,2013-01-05 03:14:00,
2013-01-04 19:16:00,40.7,38.3,30.23,SE,146,0.0,-999.0,91,0.00,,,0.01,0,Wunderground v.1.15,2013-01-05 03:16:00,
2013-01-04 19:17:00,40.7,38.3,30.23,SE,146,0.0,-999.0,91,0.00,,,0.01,0,Wunderground v.1.15,2013-01-05 03:17:00,
2013-01-04 19:19:00,40.7,38.3,30.23,SE,146,0.0,-999.0,91,0.00,,,0.01,0,Wunderground v.1.15,2013-01-05 03:19:00,
2013-01-04 19:20:00,40.7,38.3,30.23,SE,146,0.0,-999.0,91,0.00,,,0.01,0,Wunderground v.1.15,2013-01-05 03:20:00,
2013-01-04 19:21:00,40.5,38.1,30.23,SE,146,0.0,-999.0,91,0.00,,,0.01,0,Wunderground v.1.15,2013-01-05 03:21:00,
2013-01-04 19:22:00,40.5,38.1,30.23,SE,146,0.0,-999.0,91,0.00,,,0.01,0,Wunderground v.1.15,2013-01-05 03:22:00,
2013-01-04 19:25:00,40.5,38.1,30.23,SE,146,0.0,-999.0,91,0.00,,,0.01,0,Wunderground v.1.15,2013-01-05 03:25:00,
2013-01-04 19:26:00,40.5,38.1,30.23,SE,143,0.0,-999.0,91,0.00,,,0.01,0,Wunderground v.1.15,2013-01-05 03:26:00,
2013-01-04 19:27:00,40.5,38.1,30.23,SE,146,0.0,-999.0,91,0.00,,,0.01,0,Wunderground v.1.15,2013-01-05 03:27:00,
2013-01-04 19:30:00,40.4,38.0,30.23,SE,146,0.0,-999.0,91,0.00,,,0.01,0,Wunderground v.1.15,2013-01-05 03:30:00,
2013-01-04 19:31:00,40.4,38.0,30.22,SE,146,0.0,-999.0,91,0.00,,,0.01,0,Wunderground v.1.15,2013-01-05 03:31:00,
2013-01-04 19:32:00,40.4,38.0,30.22,SE,146,0.0,-999.0,91,0.00,,,0.01,0,Wunderground v.1.15,2013-01-05 03:32:00,
2013-01-04 19:35:00,40.2,37.8,30.22,SE,146,0.0,-999.0,91,0.00,,,0.01,0,Wunderground v.1.15,2013-01-05 03:35:00,
2013-01-04 19:36:00,40.2,37.8,30.22,SE,146,0.0,-999.0,91,0.00,,,0.01,0,Wunderground v.1.15,2013-01-05 03:36:00,
2013-01-04 19:37:00,40.2,37.8,30.22,SE,146,0.0,-999.0,91,0.00,,,0.01,0,Wunderground v.1.15,2013-01-05 03:37:00,
2013-01-04 19:40:00,40.1,37.7,30.22,SE,146,0.0,-999.0,91,0.00,,,0.01,0,Wunderground v.1.15,2013-01-05 03:40:00,
2013-01-04 19:41:00,39.9,37.5,30.22,SE,146,0.0,-999.0,91,0.00,,,0.01,0,Wunderground v.1.15,2013-01-05 03:41:00,
2013-01-04 19:42:00,39.9,37.5,30.22,SE,146,0.0,-999.0,91,0.00,,,0.01,0,Wunderground v.1.15,2013-01-05 03:42:00,
2013-01-04 19:43:00,39.9,37.5,30.22,SE,143,0.0,-999.0,91,0.00,,,0.01,0,Wunderground v.1.15,2013-01-05 03:43:00,
2013-01-04 19:45:00,39.8,37.4,30.22,SE,146,0.0,-999.0,91,0.00,,,0.01,0,Wunderground v.1.15,2013-01-05 03:45:00,
2013-01-04 19:47:00,39.8,37.4,30.22,SE,146,0.0,-999.0,91,0.00,,,0.01,0,Wunderground v.1.15,2013-01-05 03:47:00,
2013-01-04 19:48:00,39.8,37.4,30.22,SE,146,0.0,-999.0,91,0.00,,,0.01,0,Wunderground v.1.15,2013-01-05 03:48:00,
2013-01-04 19:50:00,39.8,37.4,30.22,SE,146,0.0,-999.0,91,0.00,,,0.01,0,Wunderground v.1.15,2013-01-05 03:50:00,
2013-01-04 19:52:00,39.7,37.3,30.22,SE,146,0.0,-999.0,91,0.00,,,0.01,0,Wunderground v.1.15,2013-01-05 03:52:00,
2013-01-04 19:53:00,39.7,37.3,30.22,SE,146,0.0,-999.0,91,0.00,,,0.01,0,Wunderground v.1.15,2013-01-05 03:53:00,
2013-01-04 19:55:00,39.7,37.3,30.22,SE,146,0.0,-999.0,91,0.00,,,0.01,0,Wunderground v.1.15,2013-01-05 03:55:00,
2013-01-04 19:57:00,39.5,37.1,30.22,SE,146,0.0,-999.0,91,0.00,,,0.01,0,Wunderground v.1.15,2013-01-05 03:57:00,
2013-01-04 19:59:00,39.5,37.1,30.22,SE,146,0.0,-999.0,91,0.00,,,0.01,0,Wunderground v.1.15,2013-01-05 03:59:00,
2013-01-04 20:00:00,39.5,37.1,30.21,SE,146,0.0,-999.0,91,0.00,,,0.01,0,Wunderground v.1.15,2013-01-05 04:00:00,
2013-01-04 20:02:00,39.4,37.0,30.21,SE,146,0.0,-999.0,91,0.00,,,0.01,0,Wunderground v.1.15,2013-01-05 04:02:00,
2013-01-04 20:03:00,39.4,-99.9,30.21,SE,146,0.0,-999.0,255,0.00,,,0.01,0,Wunderground v.1.15,2013-01-05 04:03:00,
2013-01-04 20:04:00,39.4,37.0,30.21,SE,146,0.0,-999.0,91,0.00,,,0.01,0,Wunderground v.1.15,2013-01-05 04:04:00,
2013-01-04 20:06:00,39.4,37.0,30.21,SE,146,0.0,-999.0,91,0.00,,,0.01,0,Wunderground v.1.15,2013-01-05 04:06:00,
2013-01-04 20:08:00,39.4,37.0,30.21,SE,146,0.0,-999.0,91,0.00,,,0.01,0,Wunderground v.1.15,2013-01-05 04:08:00,
2013-01-04 20:10:00,39.2,36.8,30.21,SE,146,0.0,-999.0,91,0.00,,,0.01,0,Wunderground v.1.15,2013-01-05 04:10:00,
2013-01-04 20:11:00,39.2,36.8,30.21,SE,146,0.0,-999.0,91,0.00,,,0.01,0,Wunderground v.1.15,2013-01-05 04:11:00,
2013-01-04 20:13:00,39.2,36.8,30.21,SE,146,0.0,-999.0,91,0.00,,,0.01,0,Wunderground v.1.15,2013-01-05 04:13:00,
2013-01-04 20:15:00,39.2,36.8,30.21,SE,146,0.0,-999.0,91,0.00,,,0.01,0,Wunderground v.1.15,2013-01-05 04:15:00,
2013-01-04 20:16:00,39.1,36.7,30.21,SE,143,0.0,-999.0,91,0.00,,,0.01,0,Wunderground v.1.15,2013-01-05 04:16:00,
2013-01-04 20:19:00,39.1,36.7,30.21,SE,146,0.0,-999.0,91,0.00,,,0.01,0,Wunderground v.1.15,2013-01-05 04:19:00,
2013-01-04 20:20:00,39.1,36.7,30.21,SE,146,0.0,-999.0,91,0.00,,,0.01,0,Wunderground v.1.15,2013-01-05 04:20:00,
2013-01-04 20:21:00,39.1,36.7,30.21,SE,146,0.0,-999.0,91,0.00,,,0.01,0,Wunderground v.1.15,2013-01-05 04:21:00,
2013-01-04 20:24:00,39.1,36.7,30.21,SE,146,0.0,-999.0,91,0.00,,,0.01,0,Wunderground v.1.15,2013-01-05 04:24:00,
2013-01-04 20:25:00,39.1,36.7,30.21,SE,146,0.0,-999.0,91,0.00,,,0.01,0,Wunderground v.1.15,2013-01-05 04:25:00,
2013-01-04 20:26:00,39.1,36.7,30.21,SE,146,0.0,-999.0,91,0.00,,,0.01,0,Wunderground v.1.15,2013-01-05 04:26:00,
2013-01-04 20:29:00,39.1,36.7,30.21,SE,146,0.0,-999.0,91,0.00,,,0.01,0,Wunderground v.1.15,2013-01-05 04:29:00,
2013-01-04 20:32:00,39.1,36.7,30.21,SE,146,0.0,-999.0,91,0.00,,,0.01,0,Wunderground v.1.15,2013-01-05 04:32:00,
2013-01-04 20:33:00,39.1,36.7,30.21,SE,146,0.0,-999.0,91,0.00,,,0.01,0,Wunderground v.1.15,2013-01-05 04:33:00,
2013-01-04 20:34:00,39.1,36.7,30.21,SE,146,0.0,-999.0,91,0.00,,,0.01,0,Wunderground v.1.15,2013-01-05 04:34:00,
2013-01-04 20:37:00,39.1,36.7,30.21,SE,146,0.0,-999.0,91,0.00,,,0.01,0,Wunderground v.1.15,2013-01-05 04:37:00,
2013-01-04 20:38:00,39.1,36.7,30.21,SE,146,0.0,-999.0,91,0.00,,,0.01,0,Wunderground v.1.15,2013-01-05 04:38:00,
2013-01-04 20:39:00,39.1,36.7,30.21,SE,146,0.0,-999.0,91,0.00,,,0.01,0,Wunderground v.1.15,2013-01-05 04:39:00,
2013-01-04 20:42:00,39.2,36.8,30.21,SE,146,0.0,-999.0,91,0.00,,,0.01,0,Wunderground v.1.15,2013-01-05 04:42:00,
2013-01-04 20:43:00,39.2,36.8,30.21,SE,146,0.0,-999.0,91,0.00,,,0.01,0,Wunderground v.1.15,2013-01-05 04:43:00,
2013-01-04 20:44:00,39.2,36.8,30.21,SE,146,0.0,-999.0,91,0.00,,,0.01,0,Wunderground v.1.15,2013-01-05 04:44:00,
2013-01-04 20:47:00,39.2,36.8,30.20,SE,146,0.0,-999.0,91,0.00,,,0.01,0,Wunderground v.1.15,2013-01-05 04:47:00,
2013-01-04 20:48:00,39.2,36.8,30.20,SE,146,0.0,-999.0,91,0.00,,,0.01,0,Wunderground v.1.15,2013-01-05 04:48:00,
2013-01-04 20:49:00,39.4,37.0,30.20,SE,146,0.0,-999.0,91,0.00,,,0.01,0,Wunderground v.1.15,2013-01-05 04:49:00,
2013-01-04 20:52:00,39.4,37.0,30.20,SE,146,0.0,-999.0,91,0.00,,,0.01,0,Wunderground v.1.15,2013-01-05 04:52:00,
2013-01-04 20:55:00,39.4,37.0,30.20,SE,146,0.0,-999.0,91,0.00,,,0.01,0,Wunderground v.1.15,2013-01-05 04:55:00,
2013-01-04 20:58:00,39.5,37.1,30.20,SE,146,0.0,-999.0,91,0.00,,,0.01,0,Wunderground v.1.15,2013-01-05 04:58:00,
2013-01-04 21:00:00,39.5,37.1,30.20,SE,146,0.0,-999.0,91,0.00,,,0.01,0,Wunderground v.1.15,2013-01-05 05:00:00,
2013-01-04 21:01:00,39.5,37.1,30.20,SE,146,0.0,-999.0,91,0.00,,,0.01,0,Wunderground v.1.15,2013-01-05 05:01:00,
2013-01-04 21:05:00,39.5,37.1,30.20,SE,146,0.0,-999.0,91,0.00,,,0.01,0,Wunderground v.1.15,2013-01-05 05:05:00,
2013-01-04 21:06:00,39.5,37.1,30.20,SE,146,0.0,-999.0,91,0.00,,,0.01,0,Wunderground v.1.15,2013-01-05 05:06:00,
2013-01-04 21:10:00,39.5,37.1,30.20,SE,146,0.0,-999.0,91,0.00,,,0.01,0,Wunderground v.1.15,2013-01-05 05:10:00,
2013-01-04 21:11:00,39.5,37.1,30.20,SE,146,0.0,-999.0,91,0.00,,,0.01,0,Wunderground v.1.15,2013-01-05 05:11:00,
2013-01-04 21:12:00,39.5,37.1,30.20,SE,146,0.0,-999.0,91,0.00,,,0.01,0,Wunderground v.1.15,2013-01-05 05:12:00,
2013-01-04 21:15:00,39.5,37.1,30.20,SE,146,0.0,-999.0,91,0.00,,,0.01,0,Wunderground v.1.15,2013-01-05 05:15:00,
2013-01-04 21:16:00,39.5,37.1,30.20,SE,146,0.0,-999.0,91,0.00,,,0.01,0,Wunderground v.1.15,2013-01-05 05:16:00,
2013-01-04 21:17:00,39.5,37.1,30.20,SE,146,0.0,-999.0,91,0.00,,,0.01,0,Wunderground v.1.15,2013-01-05 05:17:00,
2013-01-04 21:21:00,39.5,37.1,30.20,SE,146,0.0,-999.0,91,0.00,,,0.01,0,Wunderground v.1.15,2013-01-05 05:21:00,
2013-01-04 21:22:00,39.5,37.1,30.20,SE,146,0.0,-999.0,91,0.00,,,0.01,0,Wunderground v.1.15,2013-01-05 05:22:00,
2013-01-04 21:26:00,39.5,37.1,30.20,SE,146,0.0,-999.0,91,0.00,,,0.01,0,Wunderground v.1.15,2013-01-05 05:26:00,
2013-01-04 21:27:00,39.7,37.3,30.20,SE,146,0.0,-999.0,91,0.00,,,0.01,0,Wunderground v.1.15,2013-01-05 05:27:00,
2013-01-04 21:31:00,39.7,37.3,30.19,SE,146,0.0,-999.0,91,0.00,,,0.01,0,Wunderground v.1.15,2013-01-05 05:31:00,
2013-01-04 21:32:00,39.7,37.3,30.19,SE,146,0.0,-999.0,91,0.00,,,0.01,0,Wunderground v.1.15,2013-01-05 05:32:00,
2013-01-04 21:36:00,39.5,37.1,30.19,SE,146,0.0,-999.0,91,0.00,,,0.01,0,Wunderground v.1.15,2013-01-05 05:36:00,
2013-01-04 21:37:00,39.5,37.1,30.19,SE,146,0.0,-999.0,91,0.00,,,0.01,0,Wunderground v.1.15,2013-01-05 05:37:00,
2013-01-04 21:38:00,39.5,37.1,30.19,SE,146,0.0,-999.0,91,0.00,,,0.01,0,Wunderground v.1.15,2013-01-05 05:38:00,
2013-01-04 21:41:00,39.5,37.1,30.19,SE,146,0.0,-999.0,91,0.00,,,0.01,0,Wunderground v.1.15,2013-01-05 05:41:00,
2013-01-04 21:42:00,39.5,37.1,30.19,SE,146,0.0,-999.0,91,0.00,,,0.01,0,Wunderground v.1.15,2013-01-05 05:42:00,
2013-01-04 21:43:00,39.5,37.1,30.19,SE,146,0.0,-999.0,91,0.00,,,0.01,0,Wunderground v.1.15,2013-01-05 05:43:00,
2013-01-04 21:47:00,39.5,37.1,30.20,SE,146,0.0,-999.0,91,0.00,,,0.01,0,Wunderground v.1.15,2013-01-05 05:47:00,
2013-01-04 21:48:00,39.5,37.1,30.20,SE,146,0.0,-999.0,91,0.00,,,0.01,0,Wunderground v.1.15,2013-01-05 05:48:00,
2013-01-04 21:52:00,39.5,37.1,30.20,SE,146,0.0,-999.0,91,0.00,,,0.01,0,Wunderground v.1.15,2013-01-05 05:52:00,
2013-01-04 21:53:00,39.5,37.1,30.20,SE,146,0.0,-999.0,91,0.00,,,0.01,0,Wunderground v.1.15,2013-01-05 05:53:00,
2013-01-04 21:57:00,39.5,37.1,30.20,SE,146,0.0,-999.0,91,0.00,,,0.01,0,Wunderground v.1.15,2013-01-05 05:57:00,
2013-01-04 21:58:00,39.5,37.1,30.20,SE,146,0.0,-999.0,91,0.00,,,0.01,0,Wunderground v.1.15,2013-01-05 05:58:00,
2013-01-04 21:59:00,39.5,37.1,30.20,SE,146,0.0,-999.0,91,0.00,,,0.01,0,Wunderground v.1.15,2013-01-05 05:59:00,
2013-01-04 22:02:00,39.5,37.1,30.20,SE,146,0.0,-999.0,91,0.00,,,0.01,0,Wunderground v.1.15,2013-01-05 06:02:00,
2013-01-04 22:03:00,39.5,37.1,30.20,SE,146,0.0,-999.0,91,0.00,,,0.01,0,Wunderground v.1.15,2013-01-05 06:03:00,
2013-01-04 22:04:00,39.5,37.1,30.20,SE,146,0.0,-999.0,91,0.00,,,0.01,0,Wunderground v.1.15,2013-01-05 06:04:00,
2013-01-04 22:07:00,39.5,37.1,30.20,SE,146,0.0,-999.0,91,0.00,,,0.01,0,Wunderground v.1.15,2013-01-05 06:07:00,
2013-01-04 22:08:00,39.5,37.1,30.20,SE,146,0.0,-999.0,91,0.00,,,0.01,0,Wunderground v.1.15,2013-01-05 06:08:00,
2013-01-04 22:10:00,39.5,37.1,30.20,SE,146,0.0,-999.0,91,0.00,,,0.01,0,Wunderground v.1.15,2013-01-05 06:10:00,
2013-01-04 22:13:00,39.5,37.1,30.20,SE,146,0.0,-999.0,91,0.00,,,0.01,0,Wunderground v.1.15,2013-01-05 06:13:00,
2013-01-04 22:14:00,39.4,37.0,30.20,SE,146,0.0,-999.0,91,0.00,,,0.01,0,Wunderground v.1.15,2013-01-05 06:14:00,
2013-01-04 22:16:00,39.4,37.0,30.20,SE,146,0.0,-999.0,91,0.00,,,0.01,0,Wunderground v.1.15,2013-01-05 06:16:00,
2013-01-04 22:18:00,39.4,37.0,30.20,SE,146,1.0,-999.0,91,0.00,,,0.01,0,Wunderground v.1.15,2013-01-05 06:18:00,
2013-01-04 22:19:00,39.4,37.0,30.20,SE,146,0.0,-999.0,91,0.00,,,0.01,0,Wunderground v.1.15,2013-01-05 06:19:00,
2013-01-04 22:21:00,39.4,37.0,30.20,SE,146,0.0,-999.0,91,0.00,,,0.01,0,Wunderground v.1.15,2013-01-05 06:21:00,
2013-01-04 22:23:00,39.5,37.1,30.20,SE,146,0.0,-999.0,91,0.00,,,0.01,0,Wunderground v.1.15,2013-01-05 06:23:00,
2013-01-04 22:24:00,39.5,37.1,30.20,SE,146,0.0,-999.0,91,0.00,,,0.01,0,Wunderground v.1.15,2013-01-05 06:24:00,
2013-01-04 22:26:00,39.5,37.1,30.20,SE,146,0.0,-999.0,91,0.00,,,0.01,0,Wunderground v.1.15,2013-01-05 06:26:00,
2013-01-04 22:28:00,39.5,37.1,30.20,SE,146,0.0,-999.0,91,0.00,,,0.01,0,Wunderground v.1.15,2013-01-05 06:28:00,
2013-01-04 22:29:00,39.5,37.1,30.20,SE,146,0.0,-999.0,91,0.00,,,0.01,0,Wunderground v.1.15,2013-01-05 06:29:00,
2013-01-04 22:31:00,39.5,37.1,30.19,SE,146,0.0,-999.0,91,0.00,,,0.01,0,Wunderground v.1.15,2013-01-05 06:31:00,
2013-01-04 22:33:00,39.5,37.1,30.19,SE,146,0.0,-999.0,91,0.00,,,0.01,0,Wunderground v.1.15,2013-01-05 06:33:00,
2013-01-04 22:34:00,39.5,37.1,30.19,SE,146,0.0,-999.0,91,0.00,,,0.01,0,Wunderground v.1.15,2013-01-05 06:34:00,
2013-01-04 22:35:00,39.5,37.1,30.19,SE,146,0.0,-999.0,91,0.00,,,0.01,0,Wunderground v.1.15,2013-01-05 06:35:00,
2013-01-04 22:37:00,39.5,37.1,30.19,SE,146,0.0,-999.0,91,0.00,,,0.01,0,Wunderground v.1.15,2013-01-05 06:37:00,
2013-01-04 22:38:00,39.5,37.1,30.19,SE,146,0.0,-999.0,91,0.00,,,0.01,0,Wunderground v.1.15,2013-01-05 06:38:00,
2013-01-04 22:40:00,39.5,37.1,30.19,SE,146,0.0,-999.0,91,0.00,,,0.01,0,Wunderground v.1.15,2013-01-05 06:40:00,
2013-01-04 22:42:00,39.5,37.1,30.19,SE,146,0.0,-999.0,91,0.00,,,0.01,0,Wunderground v.1.15,2013-01-05 06:42:00,
2013-01-04 22:44:00,39.5,37.1,30.19,SE,146,0.0,-999.0,91,0.00,,,0.01,0,Wunderground v.1.15,2013-01-05 06:44:00,
2013-01-04 22:45:00,39.5,37.1,30.19,SE,146,0.0,-999.0,91,0.00,,,0.01,0,Wunderground v.1.15,2013-01-05 06:45:00,
2013-01-04 22:47:00,39.5,37.1,30.19,SE,146,0.0,-999.0,91,0.00,,,0.01,0,Wunderground v.1.15,2013-01-05 06:47:00,
2013-01-04 22:50:00,39.5,37.1,30.19,SE,146,0.0,-999.0,91,0.00,,,0.01,0,Wunderground v.1.15,2013-01-05 06:50:00,
2013-01-04 22:52:00,39.5,37.1,30.19,SE,146,0.0,-999.0,91,0.00,,,0.01,0,Wunderground v.1.15,2013-01-05 06:52:00,
2013-01-04 22:55:00,39.5,37.1,30.19,SE,146,0.0,-999.0,91,0.00,,,0.01,0,Wunderground v.1.15,2013-01-05 06:55:00,
2013-01-04 22:56:00,39.5,37.1,30.19,SE,146,0.0,-999.0,91,0.00,,,0.01,0,Wunderground v.1.15,2013-01-05 06:56:00,
2013-01-04 22:57:00,39.5,37.1,30.19,SE,146,0.0,-999.0,91,0.00,,,0.01,0,Wunderground v.1.15,2013-01-05 06:57:00,
2013-01-04 23:00:00,39.5,37.1,30.19,SE,146,0.0,-999.0,91,0.00,,,0.01,0,Wunderground v.1.15,2013-01-05 07:00:00,
2013-01-04 23:01:00,39.5,37.1,30.19,SE,146,0.0,-999.0,91,0.00,,,0.01,0,Wunderground v.1.15,2013-01-05 07:01:00,
2013-01-04 23:02:00,39.5,37.1,30.19,SE,146,0.0,-999.0,91,0.00,,,0.01,0,Wunderground v.1.15,2013-01-05 07:02:00,
2013-01-04 23:05:00,39.5,37.1,30.19,SE,146,0.0,-999.0,91,0.00,,,0.01,0,Wunderground v.1.15,2013-01-05 07:05:00,
2013-01-04 23:06:00,39.5,37.1,30.19,SE,146,0.0,-999.0,91,0.00,,,0.01,0,Wunderground v.1.15,2013-01-05 07:06:00,
2013-01-04 23:08:00,39.5,37.1,30.19,SE,146,0.0,-999.0,91,0.00,,,0.01,0,Wunderground v.1.15,2013-01-05 07:08:00,
2013-01-04 23:10:00,39.7,37.3,30.19,SE,146,0.0,-999.0,91,0.00,,,0.01,0,Wunderground v.1.15,2013-01-05 07:10:00,
2013-01-04 23:11:00,39.7,37.3,30.19,SE,146,0.0,-999.0,91,0.00,,,0.01,0,Wunderground v.1.15,2013-01-05 07:11:00,
2013-01-04 23:14:00,39.7,37.3,30.19,SE,146,0.0,-999.0,91,0.00,,,0.01,0,Wunderground v.1.15,2013-01-05 07:14:00,
2013-01-04 23:15:00,39.7,37.3,30.20,SE,146,0.0,-999.0,91,0.00,,,0.01,0,Wunderground v.1.15,2013-01-05 07:15:00,
2013-01-04 23:17:00,39.7,37.3,30.20,SE,146,0.0,-999.0,91,0.00,,,0.01,0,Wunderground v.1.15,2013-01-05 07:17:00,
2013-01-04 23:19:00,39.7,37.3,30.20,SE,146,0.0,-999.0,91,0.00,,,0.01,0,Wunderground v.1.15,2013-01-05 07:19:00,
2013-01-04 23:21:00,39.7,37.3,30.20,SE,146,0.0,-999.0,91,0.00,,,0.01,0,Wunderground v.1.15,2013-01-05 07:21:00,
2013-01-04 23:22:00,39.7,37.3,30.20,SE,146,0.0,-999.0,91,0.00,,,0.01,0,Wunderground v.1.15,2013-01-05 07:22:00,
2013-01-04 23:24:00,39.7,37.3,30.20,SE,146,0.0,-999.0,91,0.00,,,0.01,0,Wunderground v.1.15,2013-01-05 07:24:00,
2013-01-04 23:26:00,39.7,37.3,30.20,SE,146,0.0,-999.0,91,0.00,,,0.01,0,Wunderground v.1.15,2013-01-05 07:26:00,
2013-01-04 23:27:00,39.7,37.3,30.20,SE,146,0.0,-999.0,91,0.00,,,0.01,0,Wunderground v.1.15,2013-01-05 07:27:00,
2013-01-04 23:29:00,39.7,37.3,30.20,SE,146,0.0,-999.0,91,0.00,,,0.01,0,Wunderground v.1.15,2013-01-05 07:29:00,
2013-01-04 23:31:00,39.5,37.1,30.19,SE,146,0.0,-999.0,91,0.00,,,0.01,0,Wunderground v.1.15,2013-01-05 07:31:00,
2013-01-04 23:33:00,39.5,37.1,30.19,SE,146,0.0,-999.0,91,0.00,,,0.01,0,Wunderground v.1.15,2013-01-05 07:33:00,
2013-01-04 23:34:00,39.5,37.1,30.19,SE,146,0.0,-999.0,91,0.00,,,0.01,0,Wunderground v.1.15,2013-01-05 07:34:00,
2013-01-04 23:36:00,39.5,37.1,30.19,SE,146,0.0,-999.0,91,0.00,,,0.01,0,Wunderground v.1.15,2013-01-05 07:36:00,
2013-01-04 23:37:00,39.5,37.1,30.19,SE,146,0.0,-999.0,91,0.00,,,0.01,0,Wunderground v.1.15,2013-01-05 07:37:00,
2013-01-04 23:38:00,39.5,37.1,30.19,SE,146,0.0,-999.0,91,0.00,,,0.01,0,Wunderground v.1.15,2013-01-05 07:38:00,
2013-01-04 23:39:00,39.5,37.1,30.19,SE,146,0.0,-999.0,91,0.00,,,0.01,0,Wunderground v.1.15,2013-01-05 07:39:00,
2013-01-04 23:41:00,39.5,37.1,30.19,SE,146,0.0,-999.0,91,0.00,,,0.01,0,Wunderground v.1.15,2013-01-05 07:41:00,
2013-01-04 23:42:00,39.5,37.1,30.19,SE,146,0.0,-999.0,91,0.00,,,0.01,0,Wunderground v.1.15,2013-01-05 07:42:00,
2013-01-04 23:43:00,39.5,37.1,30.19,SE,146,0.0,-999.0,91,0.00,,,0.01,0,Wunderground v.1.15,2013-01-05 07:43:00,
2013-01-04 23:45:00,39.5,37.1,30.19,SE,146,0.0,-999.0,91,0.00,,,0.01,0,Wunderground v.1.15,2013-01-05 07:45:00,
2013-01-04 23:46:00,39.4,37.0,30.19,SE,146,0.0,-999.0,91,0.00,,,0.01,0,Wunderground v.1.15,2013-01-05 07:46:00,
2013-01-04 23:47:00,39.4,37.0,30.19,SE,146,0.0,-999.0,91,0.00,,,0.01,0,Wunderground v.1.15,2013-01-05 07:47:00,
2013-01-04 23:49:00,39.4,37.0,30.19,SE,146,0.0,-999.0,91,0.00,,,0.01,0,Wunderground v.1.15,2013-01-05 07:49:00,
2013-01-04 23:50:00,39.4,37.0,30.19,SE,146,0.0,-999.0,91,0.00,,,0.01,0,Wunderground v.1.15,2013-01-05 07:50:00,
2013-01-04 23:52:00,39.4,37.0,30.19,SE,146,0.0,-999.0,91,0.00,,,0.01,0,Wunderground v.1.15,2013-01-05 07:52:00,
2013-01-04 23:54:00,39.4,37.0,30.19,SE,146,0.0,-999.0,91,0.00,,,0.01,0,Wunderground v.1.15,2013-01-05 07:54:00,
2013-01-04 23:55:00,39.4,37.0,30.19,SE,146,0.0,-999.0,91,0.00,,,0.01,0,Wunderground v.1.15,2013-01-05 07:55:00,
2013-01-04 23:57:00,39.4,37.0,30.19,SE,146,0.0,-999.0,91,0.00,,,0.01,0,Wunderground v.1.15,2013-01-05 07:57:00,
2013-01-04 23:59:00,39.4,37.0,30.19,SE,146,0.0,-999.0,91,0.00,,,0.01,0,Wunderground v.1.15,2013-01-05 07:59:00,